GFSCGP_sfc_30mbdewp_024.txt.gz
Dewpoint
27 22 16 19 17 15 12 10 11 15 19 19 21 21 21 22 23 24 26 28 29 29 29 30 32 33 34 36 38 39 39 38 51 55 54 49 45 44 43 42 40 38 40 40
20 22 22 20 18 19 20 19 19 20 22 20 20 20 22 23 27 29 29 26 25 24 25 27 29 31 32 33 36 36 39 40 39 52 54 51 46 44 44 43 41 39 39 40
20 22 24 19 20 20 20 19 21 22 23 23 21 17 20 27 29 25 23 21 19 19 20 23 24 27 29 32 34 35 37 39 39 39 52 51 47 45 44 43 43 41 40 41
22 23 21 22 21 20 19 22 23 23 22 18 21 18 19 25 25 23 21 22 21 19 19 23 25 26 26 28 34 35 36 37 39 40 41 50 49 46 45 44 44 43 41 40
19 20 22 22 21 23 21 24 25 25 24 23 23 21 18 25 25 24 25 22 13 18 23 25 26 27 28 30 35 35 34 37 40 41 40 40 46 50 47 45 44 43 42 40
23 24 23 24 27 26 25 26 22 20 19 20 21 22 17 21 24 16 11 8 7 13 22 25 26 28 28 30 34 34 34 36 39 40 40 38 40 48 49 47 45 43 41 40
25 22 26 28 22 27 27 22 14 13 22 21 18 15 18 22 14 9 7 8 9 9 20 23 24 27 28 30 32 33 34 36 37 39 40 39 37 41 49 48 45 43 41 40
22 19 24 21 22 23 20 20 18 12 9 19 19 13 20 15 9 9 11 11 11 11 20 23 25 26 27 28 29 32 33 34 35 37 40 39 36 38 43 49 47 43 42 40
19 20 20 16 24 22 19 15 14 19 19 16 15 13 19 11 9 11 11 11 10 12 20 23 24 25 26 25 28 29 32 31 31 34 39 40 38 36 39 46 48 46 42 41
16 9 6 19 17 15 18 16 9 9 5 3 1 2 3 9 10 13 11 10 8 12 20 21 21 23 24 25 26 31 28 26 27 30 38 40 41 37 35 37 46 46 45 41
15 9 8 8 6 6 9 7 7 7 7 4 9 10 12 10 13 13 11 8 9 17 21 22 22 23 23 24 27 26 25 26 26 31 37 39 39 40 36 35 40 44 44 41
15 14 5 4 9 13 11 6 7 14 13 15 13 13 14 13 13 13 11 8 13 20 22 23 24 22 22 25 25 25 25 26 27 33 36 38 39 41 38 34 35 37 42 42
18 9 7 8 17 17 15 17 18 14 16 16 15 14 16 15 13 12 10 12 17 20 22 22 23 22 23 23 25 26 26 28 32 32 34 38 40 42 40 35 35 35 38 40
22 15 9 6 11 14 14 15 14 14 14 13 13 13 13 12 12 11 12 15 20 21 21 21 23 24 23 24 25 26 27 31 32 32 34 39 41 42 41 40 34 35 35 38
22 17 16 16 16 17 16 15 14 13 13 12 13 12 13 11 8 11 13 19 22 23 23 23 26 26 25 25 27 28 29 30 30 29 33 38 42 42 40 41 38 34 35 35
20 18 20 20 19 17 14 14 14 13 13 12 9 8 10 12 11 13 21 22 22 23 26 26 25 26 26 26 27 28 28 29 30 28 28 35 41 42 41 42 43 38 35 35
20 21 21 18 16 16 15 13 10 11 11 11 9 12 15 21 25 24 25 24 22 26 26 24 25 25 25 25 26 27 27 28 29 28 28 32 39 40 39 41 43 43 41 35
20 20 19 18 18 13 15 14 14 13 13 14 15 19 27 28 28 26 26 24 24 25 24 24 24 25 25 26 27 27 27 28 29 29 29 31 38 37 37 37 41 43 44 36
20 19 18 17 16 16 15 14 15 13 14 17 21 25 25 25 27 26 26 29 30 29 27 25 24 24 25 26 27 28 28 29 29 29 30 37 37 35 36 35 39 41 44 42
17 20 19 16 15 14 13 17 17 20 15 19 21 22 24 28 26 27 29 32 32 33 28 25 25 25 25 27 28 28 29 28 28 29 37 37 37 36 36 34 33 40 43 44
13 16 17 18 17 18 18 16 17 11 14 20 20 24 28 29 31 31 32 33 33 30 26 27 26 25 25 27 28 28 29 29 29 30 36 36 36 36 36 33 29 40 43 44
16 16 16 16 15 13 16 16 14 17 20 21 29 31 31 32 32 31 32 32 31 30 29 29 27 26 26 28 28 28 29 30 30 31 34 36 36 36 35 28 30 39 43 44
14 14 14 14 15 17 18 18 20 20 26 29 30 30 30 30 30 31 31 30 30 30 31 29 28 26 26 28 29 29 30 30 30 29 32 36 37 36 33 27 30 36 42 43
15 16 16 18 18 17 19 19 21 24 28 31 31 31 31 32 31 30 30 30 29 28 30 28 26 26 27 29 30 30 30 31 30 30 33 37 38 36 31 34 33 40 41 42
20 20 18 18 20 21 20 21 30 31 31 31 31 31 28 29 28 27 26 25 24 25 26 26 26 27 28 29 30 31 31 31 31 31 35 38 36 32 36 35 39 41 43 42
23 20 19 19 18 20 25 29 30 29 30 29 28 27 25 23 23 24 24 25 24 25 26 27 27 27 27 27 29 28 30 31 32 33 37 37 36 34 36 38 38 43 43 43

GFSCGP_sfc_30mbdewp_027.txt.gz
Dewpoint
28 21 16 19 18 18 18 17 17 19 21 22 21 20 21 28 27 22 20 19 20 22 24 26 27 26 27 32 33 33 35 37 40 39 40 50 49 47 43 40 39 39 38 38
21 20 22 22 20 19 20 20 20 22 25 23 21 20 25 22 21 19 18 18 19 22 24 25 26 27 28 31 33 32 32 35 39 40 41 42 49 47 45 43 41 40 39 39
21 23 23 20 22 21 21 21 22 22 25 24 21 19 25 22 21 21 19 19 21 23 24 25 26 27 28 28 33 32 31 33 37 40 41 40 40 45 45 44 42 40 39 40
21 23 23 23 22 23 20 24 23 23 23 16 24 19 23 22 22 19 13 16 21 23 24 25 25 27 28 29 31 34 33 35 36 38 39 40 39 39 42 47 45 43 41 40
19 21 22 22 24 26 22 25 25 26 25 25 24 22 24 24 12 7 8 8 12 23 23 24 25 27 28 30 30 32 35 34 36 36 38 40 40 39 40 44 46 44 43 40
25 25 24 25 25 26 26 24 16 20 22 17 18 21 23 19 8 9 10 10 10 12 23 23 25 26 27 29 29 31 31 33 36 35 36 37 39 39 38 38 44 45 44 42
25 25 27 21 21 26 19 17 12 12 16 16 20 13 16 8 10 11 11 10 11 11 22 23 24 24 25 26 25 27 28 31 34 31 31 34 39 39 39 38 39 47 45 43
17 17 25 15 24 21 19 19 18 7 12 18 18 8 12 10 13 13 12 11 10 11 22 23 23 23 25 24 24 26 27 31 29 29 29 30 39 41 41 40 38 38 46 44
20 19 14 23 22 20 19 14 15 13 18 15 17 14 10 12 13 13 13 12 9 10 20 21 22 22 24 23 23 25 28 26 26 27 28 30 39 39 40 40 40 38 40 45
15 5 9 19 19 17 15 17 13 10 3 4 6 9 14 11 13 14 13 12 12 15 21 22 23 23 24 23 23 26 26 26 26 27 28 33 38 38 39 41 41 39 37 44
13 11 4 5 9 8 8 6 8 9 7 3 3 7 13 14 15 14 13 13 13 19 22 22 22 22 23 23 25 25 25 26 26 27 30 35 35 37 40 41 42 39 37 40
16 13 6 2 10 16 11 7 7 5 7 15 14 11 15 16 15 14 14 14 14 21 22 22 22 22 23 23 24 24 25 26 27 31 31 33 34 37 40 42 41 40 39 36
19 9 0 2 17 17 14 14 15 15 18 14 11 10 16 16 15 15 14 13 17 22 23 24 24 23 25 25 25 25 26 28 29 31 32 32 32 36 41 42 41 41 41 38
21 17 6 -8 6 16 16 17 17 15 13 13 14 14 14 14 14 14 12 17 21 23 23 24 27 27 26 26 26 26 28 28 28 28 31 30 31 39 41 42 41 42 42 41
23 19 19 18 19 20 19 18 18 17 16 14 14 13 14 14 15 22 24 25 25 24 23 25 27 27 25 25 25 26 26 26 27 28 28 29 30 33 41 42 41 42 41 42
21 17 20 19 20 20 18 18 17 17 17 16 14 13 14 19 28 27 27 26 25 25 24 26 27 25 24 24 25 24 25 26 27 26 27 29 30 31 31 41 43 42 42 42
20 21 20 16 19 19 15 16 14 14 13 13 11 13 24 26 26 25 25 26 25 25 29 31 29 27 25 24 24 25 26 27 28 27 27 29 29 29 37 41 40 40 41 43
20 21 20 16 18 3 11 18 16 16 16 16 16 18 25 25 23 23 26 26 26 29 30 31 31 30 26 25 25 25 26 28 28 28 29 28 29 34 38 37 37 37 41 42
20 20 17 15 16 15 17 17 17 15 15 18 19 20 19 19 21 25 26 27 30 30 31 32 33 32 26 26 26 26 25 28 28 28 28 29 32 35 36 36 36 36 38 40
21 20 17 18 14 9 13 18 19 17 10 18 19 19 23 30 27 26 30 31 31 31 32 32 32 30 29 27 27 26 27 27 28 28 30 30 30 34 35 36 35 36 38 38
16 17 17 18 17 17 20 20 18 9 8 19 21 29 30 28 29 29 31 31 31 32 32 32 31 29 29 29 29 27 26 27 28 30 30 30 30 33 33 35 36 36 36 35
13 12 16 18 16 13 19 16 14 16 20 21 28 30 30 30 30 30 31 32 31 30 30 30 29 29 29 30 29 26 26 28 30 31 30 30 30 31 33 36 37 36 34 33
16 16 15 15 14 18 19 18 21 23 29 30 30 29 30 30 30 29 29 28 27 25 25 25 25 25 25 27 26 27 30 30 31 31 31 30 30 32 33 37 36 34 33 35
19 19 17 16 17 17 19 19 24 31 30 29 29 29 29 28 26 24 23 23 24 24 24 25 24 24 25 26 26 27 27 29 30 29 29 29 30 32 36 37 34 35 37 37
19 19 17 18 20 21 22 25 30 30 29 27 27 25 24 24 24 25 26 26 27 27 27 28 29 30 30 29 28 28 28 28 28 28 29 31 33 35 37 36 34 37 39 40
24 21 20 17 20 22 24 30 31 28 26 23 24 26 27 27 27 27 27 27 28 29 31 31 31 33 33 32 31 31 31 31 27 27 30 32 33 38 37 36 36 38 43 43

GFSCGP_sfc_30mbdewp_030.txt.gz
Dewpoint
29 22 17 18 18 18 18 17 19 20 23 22 22 22 20 19 19 19 19 21 23 24 25 27 27 28 29 31 33 31 34 37 39 39 39 40 41 48 48 45 41 40 39 41
22 19 23 22 21 22 22 20 20 23 25 23 21 20 20 18 19 19 20 21 23 23 24 26 27 28 29 29 31 33 33 36 37 40 41 41 40 43 46 46 44 41 39 40
21 22 24 22 23 21 21 19 22 22 25 24 22 22 20 20 14 13 19 22 24 23 24 25 26 27 28 28 29 30 32 34 36 38 39 38 40 41 41 41 44 45 41 40
21 24 24 23 21 24 19 24 24 25 24 16 24 15 23 18 9 9 9 14 22 23 24 25 25 25 27 27 27 29 30 31 36 36 36 38 37 39 40 40 43 44 45 42
18 21 22 22 24 26 22 26 25 25 24 24 23 23 23 12 8 9 9 10 11 22 23 24 24 25 27 26 24 27 29 30 35 33 32 32 33 40 40 40 39 41 44 45
28 27 26 25 24 26 22 19 17 24 24 16 19 20 22 13 9 10 11 10 10 12 23 24 24 24 26 25 23 25 28 29 32 31 30 29 28 32 39 40 40 40 40 45
23 26 24 20 19 22 19 20 5 11 14 9 20 15 16 10 11 11 11 12 11 11 22 23 22 22 24 23 23 24 27 27 28 28 28 28 29 33 40 39 40 39 39 39
16 14 17 20 21 16 19 20 10 -4 4 15 18 8 9 12 13 13 12 13 13 11 19 22 22 22 23 24 23 25 26 25 26 27 27 28 29 34 40 39 38 40 40 40
11 11 12 21 20 18 14 13 19 13 17 14 15 10 10 13 14 14 14 14 14 13 19 22 23 23 23 23 23 25 25 25 25 26 27 27 30 38 37 37 38 41 42 41
15 -1 9 13 18 11 13 17 14 11 1 -1 5 10 11 11 14 15 13 14 14 14 20 22 23 23 23 24 24 25 25 25 26 27 27 28 31 34 35 37 38 41 43 40
13 10 -0 6 8 8 8 7 10 10 9 2 1 2 13 14 15 14 14 15 16 16 22 23 23 24 24 24 24 25 25 26 26 27 28 30 31 32 34 35 36 42 41 41
17 13 2 1 7 13 9 8 9 5 3 14 14 10 15 16 15 15 15 15 15 20 23 24 24 25 25 25 25 25 26 26 27 28 30 30 30 32 33 32 36 42 41 41
12 7 -5 2 16 16 14 15 16 16 19 13 11 8 15 15 15 16 16 19 22 23 24 24 24 25 26 27 26 26 26 27 28 29 29 28 29 31 30 31 38 40 41 41
20 11 -2 -11 2 16 12 16 18 17 14 12 12 11 13 14 16 15 22 25 25 25 25 25 24 26 28 28 26 26 26 27 27 27 26 28 28 29 30 33 37 40 40 41
21 15 18 16 18 19 19 19 19 18 17 15 12 14 16 16 15 22 27 27 26 25 25 25 25 27 28 27 26 25 26 25 25 26 28 27 28 29 32 35 36 37 41 42
23 15 21 18 19 20 19 20 20 19 18 17 17 16 17 15 25 27 26 25 21 21 24 26 27 30 28 29 29 27 24 25 26 26 26 28 28 29 31 30 33 41 42 41
20 20 20 9 19 18 11 15 17 16 15 15 12 14 16 21 24 21 19 19 20 24 26 26 29 29 29 31 32 28 26 26 25 26 27 28 29 29 29 32 40 39 39 39
20 20 21 16 17 0 6 18 18 16 16 17 18 18 21 22 19 21 25 24 26 28 28 29 30 30 32 33 33 31 27 27 26 26 27 28 29 28 32 32 34 37 37 37
21 20 15 10 15 13 12 15 16 14 14 16 17 20 19 21 29 26 25 27 28 28 30 32 31 33 32 31 31 31 29 27 27 27 27 27 28 29 30 30 34 37 37 36
21 20 16 18 12 4 6 18 19 17 11 19 19 20 25 29 25 24 26 29 29 29 30 31 31 30 30 30 30 30 28 29 29 28 26 27 29 30 30 30 34 35 34 35
19 19 17 18 16 16 19 18 20 12 8 19 24 29 29 26 26 27 29 28 28 27 26 25 25 25 25 25 26 27 27 28 27 31 28 29 31 31 31 32 31 31 33 35
14 14 16 19 17 12 21 18 13 14 21 28 29 29 27 27 28 28 26 24 24 24 25 26 26 26 26 25 25 25 25 26 27 27 31 30 31 31 30 29 29 31 34 37
14 13 10 16 15 18 19 18 20 27 29 29 29 27 28 27 24 24 25 25 26 27 27 27 27 27 27 28 27 27 30 29 28 28 27 29 31 30 29 28 29 33 37 35
20 21 17 16 16 17 19 20 25 30 30 29 29 26 24 25 26 27 27 27 26 26 25 27 29 31 33 35 35 35 35 34 32 28 28 29 28 29 29 32 33 35 36 35
21 19 18 18 17 18 21 23 29 30 30 26 24 26 27 27 27 27 25 25 26 26 27 30 30 33 34 35 35 36 37 36 35 32 29 29 28 27 32 33 33 36 37 36
23 20 18 15 19 19 20 25 31 28 23 24 27 27 27 27 26 26 26 26 27 29 31 33 34 34 34 35 35 36 36 34 34 35 31 27 28 31 32 33 36 37 37 38

GFSCGP_sfc_30mbdewp_033.txt.gz
Dewpoint
28 22 16 18 20 19 17 17 18 20 23 22 20 18 18 19 20 19 20 21 22 24 25 27 28 28 28 29 29 30 32 36 38 37 38 39 40 43 43 46 44 41 40 41
22 18 21 21 22 21 21 20 19 22 25 24 19 17 18 19 19 20 21 22 22 23 23 24 26 26 26 25 28 29 31 34 36 38 39 39 40 42 44 43 44 44 43 41
21 22 24 22 23 21 20 19 21 21 26 24 20 19 14 11 10 15 20 23 23 23 23 23 24 26 25 23 25 27 29 32 35 35 37 36 36 38 40 40 41 42 44 44
22 24 23 22 21 24 17 24 24 24 24 15 24 16 17 11 9 9 9 13 22 23 24 24 23 25 25 24 23 26 29 31 33 32 32 32 32 32 38 40 41 40 41 42
18 21 22 22 23 26 22 25 25 25 23 22 23 22 23 10 8 9 10 10 11 18 23 23 23 24 25 25 23 26 28 27 30 29 29 29 28 32 37 40 39 40 40 41
28 29 25 25 24 25 21 18 20 25 24 16 17 22 19 14 9 10 11 12 12 12 17 23 23 24 25 25 24 25 27 27 28 28 27 27 27 28 32 37 39 38 39 40
19 25 24 22 19 20 20 16 -2 3 13 6 20 19 16 9 10 11 12 13 13 13 12 22 22 22 23 24 24 24 27 25 25 25 26 27 27 29 33 39 39 38 38 40
12 12 17 23 21 17 19 19 8 -8 -3 10 19 9 10 11 12 13 14 14 14 15 14 21 22 23 22 22 23 24 25 25 25 26 26 27 28 29 35 37 37 36 38 40
4 3 10 18 16 17 13 12 19 12 15 11 12 14 10 12 13 15 15 14 15 15 15 21 23 23 23 23 23 24 24 26 26 26 26 27 28 29 33 33 35 35 38 41
13 -8 7 12 17 11 13 16 12 10 -1 -3 2 5 8 11 13 15 15 15 15 16 17 21 23 24 24 25 25 25 25 26 26 27 27 28 29 31 31 32 35 37 38 40
13 7 -3 6 8 8 6 8 12 11 9 2 0 -0 11 12 15 14 15 16 16 19 22 23 24 25 25 25 25 26 26 26 26 26 27 28 29 29 29 30 31 32 33 40
16 12 -2 -2 5 13 11 7 8 5 3 12 13 8 14 15 16 15 16 17 21 24 25 25 25 26 25 25 26 27 27 26 26 27 28 28 28 28 29 29 30 31 32 39
9 5 -5 2 14 16 14 16 16 18 18 12 6 2 16 16 15 16 17 18 25 25 25 26 26 26 26 25 26 28 28 27 27 27 28 27 28 27 29 30 30 31 34 38
19 7 -3 -6 -0 13 9 14 17 16 12 11 11 7 9 11 14 17 18 21 26 27 27 25 26 26 26 26 28 29 28 27 27 27 27 26 27 28 29 29 30 31 36 36
19 11 16 14 14 15 16 16 17 17 17 12 4 10 12 16 18 18 21 26 25 22 20 21 22 24 26 27 28 28 28 30 29 27 25 26 27 28 29 31 31 33 32 33
22 13 21 14 19 20 18 19 19 19 18 18 17 17 19 19 18 22 24 23 19 22 24 25 26 26 26 27 29 29 30 32 32 27 26 27 27 28 30 30 32 32 33 41
20 19 18 3 18 16 4 9 15 19 20 18 15 16 17 19 21 22 19 23 26 26 27 25 26 27 29 30 30 32 32 32 32 31 27 27 26 27 29 30 31 32 37 35
20 20 20 12 14 -0 5 17 18 16 16 17 16 17 20 21 21 25 28 28 27 26 25 27 27 28 28 30 30 29 29 30 30 30 30 28 27 27 28 30 30 33 33 34
21 19 13 7 12 11 8 15 14 15 13 18 18 19 19 22 29 25 25 25 25 27 27 26 26 25 25 25 25 25 26 26 27 28 29 29 29 28 28 29 30 32 32 35
21 20 13 17 7 2 5 17 19 17 9 18 19 19 23 28 22 20 22 27 27 25 25 25 26 27 27 27 27 26 26 26 25 25 26 28 27 29 30 28 31 31 33 35
19 19 17 17 15 16 18 17 19 11 6 20 22 27 28 25 24 24 27 24 25 26 27 28 27 26 26 27 27 28 29 29 28 27 27 28 30 30 28 31 31 32 31 29
15 15 18 18 17 11 21 20 13 14 20 24 28 28 27 27 27 25 25 26 27 27 26 26 26 26 26 28 29 31 33 33 34 34 32 30 29 31 29 29 31 29 29 29
11 14 13 17 14 19 21 17 19 22 24 29 29 28 27 24 24 26 27 27 25 25 26 27 27 29 31 31 32 34 35 36 36 36 36 35 31 29 29 30 29 28 29 31
19 20 16 16 13 17 19 20 21 28 29 29 29 25 25 26 26 27 27 26 26 26 27 28 30 32 33 35 35 36 37 37 36 35 36 35 32 30 29 29 29 29 33 33
20 21 19 18 17 17 19 21 22 29 30 24 24 26 27 27 27 27 26 26 26 27 28 30 32 34 34 36 36 37 37 36 35 34 34 32 32 33 30 28 27 32 33 34
22 20 16 14 15 15 17 23 29 29 24 24 25 27 27 27 26 26 26 26 27 28 29 32 33 35 35 36 37 37 38 36 34 34 32 33 34 30 30 31 33 34 35 39

GFSCGP_sfc_30mbdewp_036.txt.gz
Dewpoint
26 21 14 19 20 19 17 17 17 19 23 21 18 18 18 19 19 19 20 21 21 22 24 26 26 25 24 26 27 29 32 34 35 34 34 33 35 40 41 43 44 44 43 42
21 17 21 21 22 21 21 20 18 21 25 21 18 16 18 18 19 20 20 21 22 22 22 23 25 25 23 22 24 27 31 33 33 34 36 36 36 37 42 41 41 42 43 43
21 22 24 21 23 21 20 19 19 20 25 21 17 16 13 11 14 18 20 22 23 23 22 22 23 25 24 22 23 26 29 31 32 32 33 33 34 33 35 36 40 40 40 41
22 24 23 22 21 24 20 23 24 24 24 15 22 9 19 10 8 9 9 11 15 22 23 23 23 23 25 24 24 25 27 28 31 30 29 28 28 28 33 35 40 40 40 39
18 21 23 23 23 26 22 22 22 25 23 21 22 21 22 10 8 8 11 12 12 12 14 23 23 24 24 25 25 25 26 27 28 28 28 27 27 28 32 34 37 40 39 39
26 28 23 24 25 25 22 19 20 25 23 12 17 21 17 9 9 10 12 13 13 14 14 13 23 23 23 24 24 25 25 27 27 26 26 26 26 27 29 32 36 38 39 38
17 24 21 23 18 19 19 8 -7 -6 6 5 21 19 17 13 10 12 12 13 14 15 15 15 18 23 23 23 23 24 25 25 26 26 26 26 26 27 28 31 35 35 36 36
9 13 17 21 20 16 19 17 1 -11 -9 3 18 9 12 11 12 13 14 15 15 16 16 16 18 23 23 24 24 25 25 25 25 26 26 27 27 28 29 32 33 33 34 36
1 -1 10 14 15 15 14 10 20 11 15 8 8 13 11 11 12 14 16 16 16 16 17 17 21 23 24 24 25 25 25 25 25 26 26 27 27 28 29 30 33 33 34 36
11 -10 7 11 15 11 14 16 8 9 -2 -4 0 3 3 10 12 14 15 16 16 18 20 21 23 24 25 25 26 26 25 26 26 27 27 27 27 28 29 31 30 31 34 36
12 2 -5 6 8 8 5 11 15 12 9 2 -0 -2 7 10 12 15 15 16 17 19 23 24 25 25 25 26 26 26 26 26 27 28 28 28 27 28 29 29 29 31 32 34
15 8 -5 -5 4 13 11 8 9 5 1 10 11 4 15 14 14 15 16 18 18 21 26 26 25 25 26 26 26 26 26 27 28 28 28 27 28 28 28 28 28 30 30 32
12 3 -5 -6 11 16 12 15 15 17 17 10 3 -2 15 16 16 15 17 19 19 25 26 26 27 26 26 25 25 26 26 27 28 29 28 28 28 28 28 27 28 29 30 30
18 7 -1 -2 2 13 12 15 16 14 11 10 9 4 8 13 14 15 19 19 23 25 25 24 24 24 25 25 24 25 27 27 29 29 28 29 29 29 27 28 28 29 30 31
17 10 13 13 13 11 8 8 14 15 14 8 1 6 7 9 13 18 19 23 23 21 22 24 25 25 23 25 26 27 28 29 30 30 31 32 31 29 28 29 29 30 30 31
22 11 20 12 19 19 17 17 18 16 16 16 16 15 17 18 19 19 21 21 21 25 25 25 22 23 25 26 26 27 27 28 29 29 29 30 32 31 29 29 30 30 31 32
20 18 16 1 16 13 3 5 14 18 20 17 11 12 17 18 19 20 21 25 26 26 25 22 24 26 25 25 25 25 25 26 25 26 26 27 28 29 30 30 28 29 31 32
20 19 19 8 12 -0 6 16 16 14 17 20 19 18 20 20 21 24 27 26 26 24 23 26 25 24 25 27 27 27 27 27 27 27 26 26 26 27 29 29 29 30 31 33
22 19 11 7 8 8 7 13 14 15 11 17 18 19 19 21 27 25 23 23 24 26 25 24 26 27 27 27 26 26 27 27 27 28 28 28 28 27 27 28 30 30 31 32
21 20 12 15 6 3 7 18 18 15 7 16 19 18 19 27 20 19 23 26 25 25 26 27 27 26 26 27 28 28 29 30 30 30 32 33 33 32 30 29 31 34 31 32
19 18 16 16 13 14 16 19 18 7 9 19 19 20 26 25 25 25 27 25 26 27 27 26 26 27 28 29 31 32 34 34 35 36 37 36 37 35 35 33 31 30 34 31
16 16 16 17 16 11 21 20 13 14 18 19 22 26 28 28 28 26 25 26 27 26 26 27 27 28 29 31 33 35 35 37 37 37 37 36 37 36 35 33 30 29 30 30
11 15 14 16 14 19 21 17 20 21 20 25 28 28 28 25 24 26 26 26 26 26 27 27 28 29 30 33 34 34 35 38 38 37 36 35 35 36 33 33 31 30 29 29
18 20 15 15 15 16 20 20 21 23 25 29 29 27 24 25 26 26 26 26 26 27 27 28 29 30 30 32 34 34 36 38 37 36 35 33 32 33 32 31 30 30 29 29
18 20 18 18 18 18 18 20 20 24 30 29 25 25 26 26 26 27 26 26 26 26 27 29 30 32 32 34 34 33 37 37 36 36 35 35 32 32 33 34 32 30 28 30
22 19 17 18 20 17 17 21 24 26 28 25 24 25 27 27 26 27 26 25 26 27 28 30 31 33 34 34 34 35 37 37 36 34 35 34 35 33 35 33 32 34 34 35

GFSCGP_sfc_30mbdewp_039.txt.gz
Dewpoint
26 19 13 19 19 18 17 17 18 20 25 21 20 20 20 20 20 21 21 21 21 21 24 25 26 25 23 22 25 30 32 33 33 34 33 32 32 33 36 39 41 41 41 41
20 16 22 21 21 21 21 20 19 21 26 23 19 18 19 19 19 20 20 21 22 22 21 23 25 26 25 23 24 26 30 32 32 34 35 36 33 35 37 39 37 42 41 41
20 22 24 22 23 21 20 19 19 20 25 20 18 18 17 17 19 21 21 22 23 23 23 23 23 25 27 26 26 25 27 29 32 32 33 32 32 32 33 32 35 39 41 40
22 23 23 22 21 23 19 22 24 23 23 18 21 4 19 12 13 12 13 12 12 14 19 24 25 25 25 27 28 26 26 27 29 31 31 30 29 29 31 34 38 39 41 39
18 21 23 22 23 26 23 22 21 24 24 22 22 19 21 13 9 9 10 13 14 15 15 14 16 24 25 26 27 27 27 26 29 29 31 30 30 30 31 32 35 37 40 39
24 26 22 24 26 24 21 20 21 25 23 13 17 22 16 11 9 9 12 14 15 15 16 17 19 20 25 27 28 28 28 28 30 30 29 30 30 29 29 30 31 34 36 35
18 23 20 23 18 19 18 6 -5 -3 4 5 22 22 18 16 11 11 13 14 15 17 17 17 18 19 25 27 27 28 27 28 27 27 28 28 31 30 29 29 30 32 33 31
6 13 18 18 19 15 19 13 -4 -8 -8 -0 16 8 11 15 12 14 15 16 17 17 18 19 20 22 25 26 27 28 27 27 27 27 27 28 29 30 30 30 31 32 33 31
2 -1 10 12 15 15 15 8 19 9 12 6 6 9 13 11 13 14 16 17 17 18 19 20 21 24 24 25 25 26 26 27 27 26 26 27 27 28 30 30 30 33 32 32
10 -10 6 10 14 12 13 16 6 9 -4 -5 -0 2 2 10 11 13 15 16 18 19 19 23 25 25 25 25 25 26 26 26 26 26 27 28 28 28 29 29 29 30 31 32
11 -1 -6 6 9 9 12 12 13 11 9 1 0 -1 7 9 12 12 15 16 18 19 20 23 26 25 25 26 26 26 26 25 25 26 27 28 28 28 29 28 29 30 31 30
14 3 -8 -6 6 12 11 7 12 2 2 10 10 5 13 14 13 14 16 17 19 20 22 25 26 26 25 25 25 25 24 24 25 27 28 28 29 29 29 28 29 30 29 29
12 2 -3 -3 10 16 12 13 13 16 15 9 3 1 15 15 15 16 16 18 20 20 23 25 24 24 24 24 24 22 23 25 27 27 28 29 29 30 30 30 31 29 29 28
16 5 0 -0 4 12 11 15 16 12 11 9 8 3 6 12 14 16 17 18 20 23 24 23 25 23 22 21 22 24 25 25 27 27 28 28 29 30 31 32 31 31 30 29
15 6 11 11 10 10 8 6 15 13 12 6 3 6 7 8 11 13 18 20 22 22 23 25 24 21 20 23 24 24 25 25 26 26 27 27 27 28 29 30 31 31 30 30
21 10 19 10 18 19 16 15 16 14 15 15 14 12 14 16 18 18 19 20 22 24 25 24 20 22 23 23 24 26 27 27 27 27 27 28 28 28 28 28 28 29 30 30
19 16 13 0 13 11 5 6 10 17 18 14 10 12 17 17 19 19 20 23 25 25 24 21 23 23 24 25 27 27 27 27 27 27 27 27 28 28 28 28 28 28 30 31
19 17 17 7 9 0 7 13 13 13 16 19 17 17 19 20 21 23 25 26 25 23 23 23 23 25 26 27 27 27 28 29 30 30 31 31 30 29 29 30 30 30 30 31
21 19 10 5 8 9 7 11 14 14 10 15 17 18 20 21 26 22 24 23 25 25 24 24 26 26 27 27 28 29 30 31 33 34 34 35 35 34 35 35 32 33 31 30
21 19 11 14 7 5 8 16 18 16 8 13 18 18 18 24 15 17 23 27 25 24 25 26 27 27 27 29 29 30 31 33 34 33 35 37 37 37 36 33 35 34 35 36
18 18 17 15 13 14 15 18 18 8 11 16 19 19 22 22 22 25 28 26 25 26 27 27 27 27 28 29 30 31 32 33 34 34 37 38 38 37 36 35 34 36 37 33
15 15 16 17 15 11 20 19 13 15 18 20 20 21 25 28 29 28 26 26 26 26 26 27 27 28 29 31 31 31 32 33 34 37 37 37 38 37 36 34 36 34 33 31
13 16 14 16 14 18 21 18 21 20 18 20 23 26 29 28 25 25 26 26 26 26 27 27 27 27 30 31 32 32 32 34 36 37 35 37 37 36 35 32 33 34 33 31
17 19 16 15 17 17 20 21 22 22 22 25 28 28 27 24 25 26 26 26 26 26 26 26 27 28 30 31 32 32 33 35 37 36 36 36 36 36 36 30 31 32 32 31
17 19 17 18 18 19 20 20 20 21 25 28 29 26 25 26 26 26 26 26 26 26 26 26 28 29 30 32 32 33 33 37 36 36 36 36 36 36 35 34 33 34 33 32
21 17 17 19 21 20 21 20 20 21 24 29 27 25 26 27 26 26 26 26 26 26 25 27 29 30 31 32 33 33 34 36 36 35 35 36 36 36 36 36 35 36 36 36

GFSCGP_sfc_30mbdewp_045.txt.gz
Dewpoint
24 19 11 10 16 17 13 12 12 16 23 23 19 19 24 25 25 24 22 20 19 17 19 19 20 20 19 19 19 19 21 22 23 25 25 24 24 23 25 27 28 27 28 28
18 11 22 21 21 20 19 17 17 19 23 23 20 22 23 25 23 24 23 20 18 17 16 18 19 21 21 21 22 21 21 22 23 25 26 26 25 24 26 29 27 27 27 28
15 24 24 23 23 22 21 20 16 15 24 25 24 19 20 24 23 23 22 21 19 19 17 17 19 21 23 22 23 24 23 23 24 24 25 25 25 27 28 27 28 29 28 28
20 25 23 22 21 22 18 22 21 22 22 14 21 2 22 22 22 21 21 19 19 19 20 19 19 19 19 21 25 25 24 24 23 23 24 24 25 26 26 28 29 28 28 28
22 23 23 23 22 24 22 25 24 24 21 15 14 16 18 21 20 19 19 19 19 18 17 15 17 18 19 20 24 27 27 25 22 22 23 25 23 25 27 26 25 27 28 28
24 27 24 24 26 25 25 23 22 21 17 13 12 15 11 18 17 17 18 18 17 16 16 17 18 19 21 23 27 28 25 22 22 21 20 23 25 23 24 25 26 28 29 30
21 22 22 24 23 24 23 19 9 15 18 13 16 14 9 19 17 16 17 16 15 16 16 18 19 20 22 24 25 24 21 21 20 19 19 20 24 24 23 23 25 25 27 29
11 17 22 20 21 19 17 15 7 5 3 5 18 10 13 15 17 17 16 14 15 17 18 19 20 22 23 23 23 22 21 20 20 18 18 19 20 23 23 24 24 25 27 29
8 10 18 16 18 18 18 10 20 7 5 6 3 10 15 13 14 14 14 15 18 19 19 20 21 21 23 23 21 20 20 20 18 18 18 18 19 21 24 25 26 27 27 28
10 1 11 15 16 18 16 17 12 12 5 3 1 4 5 13 13 13 14 15 18 21 21 20 20 20 21 21 20 21 20 18 16 16 18 20 23 24 25 26 27 28 29 29
10 4 7 9 11 10 14 10 10 11 8 3 3 4 6 8 10 12 13 14 16 18 20 20 20 21 21 20 20 20 16 15 15 18 21 23 24 25 25 26 27 28 29 29
12 10 1 2 11 13 13 10 9 8 8 10 11 9 10 10 10 12 10 11 14 16 19 22 22 21 19 20 20 16 14 16 18 21 23 25 26 26 26 26 26 27 27 28
15 8 6 8 14 14 6 7 8 8 16 12 7 8 10 12 12 13 15 15 16 15 18 20 20 20 20 20 17 14 15 17 20 23 25 26 26 27 27 26 26 27 27 28
18 12 8 5 9 14 11 13 12 9 10 9 10 10 11 12 13 12 13 14 14 16 17 20 21 22 21 19 15 14 16 20 23 25 26 26 27 28 29 30 31 31 29 29
18 12 10 10 8 9 8 7 6 11 10 7 9 9 10 11 13 12 13 15 17 18 19 20 21 22 20 16 15 17 20 23 25 25 27 28 28 29 30 31 32 32 32 32
21 14 16 11 11 13 11 11 10 10 10 9 9 11 14 16 15 15 16 17 18 18 19 21 22 21 17 16 18 21 23 24 26 28 28 29 29 31 31 32 32 32 33 35
18 17 17 14 12 11 11 14 13 13 12 13 13 14 16 16 16 18 19 18 19 19 20 22 22 18 17 19 22 23 24 25 27 27 28 30 30 30 31 31 32 33 36 36
18 16 15 17 17 14 17 18 17 14 15 14 14 16 17 18 19 21 19 20 20 21 23 22 19 18 20 22 23 24 25 26 27 28 29 30 30 29 31 32 34 36 37 38
20 17 16 19 18 17 16 17 15 13 12 15 15 17 18 19 21 21 22 22 23 23 23 21 20 21 22 23 24 26 26 27 29 29 29 30 31 32 33 34 36 38 38 38
21 20 18 19 20 16 18 17 18 18 15 17 18 18 18 20 19 20 23 24 24 24 23 21 22 22 22 23 25 26 26 28 28 29 30 32 33 33 34 35 37 38 38 38
20 20 20 20 21 22 21 20 19 16 20 22 21 21 21 20 21 22 23 25 25 25 23 22 22 22 23 24 25 25 26 27 29 31 32 32 33 34 34 36 38 38 37 37
21 23 23 21 21 21 22 20 17 20 23 24 24 23 23 23 23 23 26 26 26 23 22 22 22 23 24 24 24 26 27 28 30 31 34 33 33 34 35 35 37 38 37 37
19 18 19 20 25 23 24 22 23 24 24 24 25 25 24 24 24 25 26 26 24 22 22 22 23 22 22 24 25 26 28 30 31 33 33 32 33 33 34 36 37 37 37 36
20 21 22 21 19 18 19 20 23 25 25 25 25 24 24 24 26 25 26 25 23 22 22 23 23 21 22 25 27 27 29 31 32 34 32 33 33 35 37 37 37 37 37 36
19 21 18 17 18 18 19 21 23 24 25 25 25 24 25 26 27 26 26 25 22 22 22 23 21 21 24 26 28 28 29 32 33 33 33 34 35 36 36 37 37 37 38 38
22 20 19 19 20 20 20 21 23 25 25 25 24 24 26 28 27 27 26 24 23 23 23 22 21 23 25 27 28 29 32 33 33 33 34 35 36 36 36 36 36 39 39 39

GFSCGP_sfc_30mbdewp_051.txt.gz
Dewpoint
26 21 14 17 21 20 17 15 15 17 24 22 22 23 25 27 25 25 25 22 20 18 19 19 19 20 19 20 21 23 23 23 26 26 26 26 26 28 29 29 29 31 33 31
21 15 20 23 21 19 18 17 17 23 25 23 22 22 23 27 25 25 26 23 20 19 19 20 20 20 21 23 23 24 24 24 25 26 27 28 28 28 30 31 30 32 30 28
17 24 23 21 22 21 21 21 22 19 24 24 24 23 23 28 27 26 27 25 22 19 19 19 20 21 22 23 24 25 25 25 26 27 27 27 26 27 27 28 30 29 30 30
21 25 23 22 21 22 20 26 24 23 22 16 23 17 19 26 25 25 26 25 23 19 19 19 19 21 23 23 26 26 28 28 28 26 24 24 24 25 26 28 29 28 29 28
18 24 24 23 25 24 24 26 24 24 23 22 19 17 18 25 24 24 24 24 24 21 20 20 20 19 20 21 25 28 29 29 27 25 25 25 25 26 27 28 26 27 28 29
26 27 24 25 26 25 26 22 23 24 22 17 15 13 15 23 23 24 23 23 23 22 21 21 20 20 20 25 27 28 27 26 27 26 24 23 22 22 24 24 24 26 28 28
23 24 23 23 21 25 23 22 15 16 19 14 18 15 14 22 20 22 23 23 23 22 21 19 19 20 22 24 26 26 26 26 26 24 23 22 21 21 22 23 25 26 27 28
17 20 22 23 22 22 24 22 16 9 14 8 17 11 14 16 16 17 23 22 22 21 19 18 19 21 23 24 25 26 26 24 23 23 22 19 19 22 24 25 26 27 28 29
10 17 18 18 18 19 19 13 18 11 9 7 8 16 15 15 14 15 19 20 19 18 18 19 21 22 23 23 24 25 22 22 22 18 17 18 21 23 24 26 27 28 28 29
12 3 16 16 16 18 17 19 13 14 5 7 8 10 10 12 12 14 15 16 17 18 19 20 22 22 23 23 23 23 22 20 17 17 19 21 23 24 26 27 27 28 28 29
12 8 8 9 13 15 15 8 11 12 11 6 4 6 11 14 14 13 14 16 18 19 20 21 21 22 22 23 22 22 20 17 16 19 21 23 24 26 27 27 28 28 29 30
14 12 8 8 11 13 14 13 13 12 9 15 16 13 11 11 12 12 14 15 18 21 22 23 22 22 22 22 22 21 17 16 19 21 23 24 26 28 29 29 29 30 30 31
20 7 4 9 16 16 2 6 9 12 18 7 6 5 11 12 13 14 15 17 18 18 18 22 22 21 22 23 22 18 17 19 22 23 24 25 28 28 28 30 30 29 29 29
22 16 13 9 11 14 9 13 12 10 10 10 10 10 14 14 14 13 14 15 16 17 18 19 22 22 23 23 19 17 19 22 23 24 25 26 27 28 29 29 29 29 29 29
20 12 16 16 16 15 14 13 11 9 11 10 11 11 13 14 14 15 15 20 20 20 20 21 22 23 23 19 18 20 22 23 23 25 26 27 28 29 28 28 28 29 30 29
20 12 17 14 16 14 13 14 15 14 14 13 13 12 17 19 19 20 20 21 21 21 21 22 23 23 20 20 21 22 22 23 26 26 26 27 28 27 28 29 29 29 31 31
21 19 18 15 22 19 13 16 17 15 16 15 13 15 20 19 21 20 21 22 22 22 23 24 23 21 21 22 22 22 23 26 26 26 26 27 27 27 29 30 29 30 31 30
21 18 19 15 20 8 17 18 16 17 18 21 21 22 23 23 24 23 22 22 22 23 24 24 22 22 22 23 23 23 25 25 25 26 26 27 27 28 30 29 29 31 32 33
20 20 17 15 20 20 17 15 15 15 18 24 23 24 24 25 24 23 23 23 23 24 25 24 23 23 23 23 23 24 24 25 26 26 27 28 29 29 29 30 31 33 34 34
22 22 19 21 17 8 20 17 18 19 13 25 24 24 25 26 22 24 26 27 25 26 26 24 23 23 23 23 24 23 24 26 26 27 28 29 28 28 30 32 33 34 34 35
20 20 16 18 19 23 26 20 20 13 16 27 26 26 26 25 26 27 29 28 27 27 25 24 23 23 23 24 23 23 26 27 28 28 28 29 28 30 32 33 34 34 35 37
19 19 21 21 21 19 23 20 19 23 25 24 24 25 25 27 28 29 28 28 27 26 23 23 22 23 24 23 24 26 26 28 28 28 29 30 30 32 32 33 35 36 37 36
19 22 21 24 22 26 24 22 23 25 24 24 26 27 28 28 27 28 28 28 26 25 23 23 23 24 23 23 25 25 26 27 28 29 30 31 31 31 33 36 36 36 36 36
24 24 21 21 22 22 23 23 25 26 26 26 28 28 28 28 28 27 28 27 26 24 23 24 24 23 23 25 25 25 26 28 29 30 31 32 31 34 36 37 36 36 35 35
24 25 22 21 23 23 23 24 25 26 26 25 27 27 28 28 27 28 28 27 26 24 25 25 24 24 25 25 25 25 28 30 31 32 32 31 33 36 35 36 36 36 38 40
27 25 22 20 23 22 23 25 26 26 26 26 26 27 28 28 28 29 28 27 25 25 25 25 25 25 25 25 24 27 29 30 32 32 31 33 35 35 35 35 34 38 41 41

GFSCGP_sfc_30mbdewp_057.txt.gz
Dewpoint
26 16 4 12 15 12 15 15 13 15 20 25 24 24 25 27 28 27 27 26 23 20 18 18 20 21 22 23 22 23 23 25 26 25 25 25 24 25 25 27 28 28 30 29
21 13 14 17 22 21 18 16 15 19 25 25 23 23 24 26 27 28 27 26 23 20 18 18 19 19 20 21 22 22 23 24 26 26 27 27 26 26 27 29 26 28 29 29
16 19 23 21 21 20 20 19 19 19 23 23 23 21 22 25 28 28 28 27 24 20 18 17 18 19 19 20 21 23 24 25 26 27 27 26 26 26 25 25 26 28 28 27
19 23 22 21 20 21 17 24 24 23 21 17 23 15 17 22 24 26 27 26 24 21 19 18 18 19 19 21 23 24 25 25 28 26 25 24 23 23 25 26 28 26 26 27
18 23 22 21 22 24 21 26 24 23 20 20 18 15 10 23 21 24 26 26 24 22 19 18 19 19 20 21 24 25 26 28 29 26 26 25 23 25 25 24 23 24 26 27
24 27 24 25 26 25 27 22 23 26 22 13 16 14 12 20 22 21 26 26 26 23 21 20 20 21 21 23 25 27 28 28 27 27 26 24 23 21 20 20 22 24 27 28
23 24 23 24 24 25 21 15 11 9 15 7 20 16 15 17 16 17 18 26 26 25 21 20 20 20 21 22 23 28 28 26 26 25 24 22 19 19 20 22 24 25 26 27
16 16 22 22 21 20 22 17 10 5 12 15 16 13 15 16 15 19 23 25 25 25 22 20 20 20 21 23 25 27 27 26 24 21 17 18 20 22 23 25 25 26 27 29
13 14 18 18 19 20 20 20 19 14 12 8 8 10 16 14 14 18 21 23 24 24 23 21 21 21 21 23 25 25 26 23 18 17 19 21 22 23 24 25 27 28 29 29
10 8 16 16 17 19 18 18 13 12 1 1 8 8 12 11 12 14 16 19 22 23 22 21 20 21 23 23 24 23 20 17 18 20 21 23 23 24 25 27 28 28 29 30
10 7 6 10 10 11 16 15 14 14 14 9 5 2 14 12 13 13 14 15 17 18 20 21 21 22 23 23 22 19 17 18 20 22 23 23 24 26 27 28 28 29 30 30
13 9 3 6 11 14 16 11 12 7 4 12 11 12 17 13 13 13 14 16 18 18 20 21 23 22 22 23 19 17 19 21 22 23 24 25 26 27 26 27 28 29 29 28
13 4 -3 6 15 17 7 9 15 18 16 9 7 6 12 16 15 15 16 16 17 18 19 20 22 22 23 20 18 19 21 22 23 24 25 26 26 26 26 27 28 29 28 28
18 12 6 1 12 15 11 11 10 10 7 7 7 7 12 14 15 15 20 21 21 22 22 22 21 23 22 19 20 21 22 22 23 25 26 26 26 26 27 28 29 28 28 28
16 1 14 15 15 16 15 14 13 11 11 9 10 11 13 16 18 20 21 22 22 22 22 22 23 23 21 20 21 22 22 23 24 25 25 25 26 27 28 28 28 28 29 29
19 9 17 13 21 20 18 17 18 18 15 13 12 13 20 22 22 21 22 22 22 23 22 23 23 23 21 21 22 22 22 23 25 25 25 26 27 27 27 28 28 29 28 28
20 18 16 16 18 18 12 16 17 17 16 15 13 17 23 21 22 23 23 22 23 24 24 24 24 24 22 23 23 22 23 24 24 25 26 26 27 27 27 28 29 28 28 29
20 19 19 14 16 0 6 19 19 17 20 23 22 22 23 24 25 26 26 23 23 25 26 26 25 23 23 23 23 24 24 24 26 26 26 26 27 27 28 28 29 29 30 31
21 20 16 12 14 13 16 17 17 17 17 23 22 24 25 26 27 24 25 26 26 28 28 27 24 24 23 23 24 24 23 25 25 25 26 27 27 27 28 29 30 31 31 32
21 21 16 18 9 -3 3 18 18 18 13 26 25 24 23 24 16 20 25 28 29 29 29 26 24 23 23 23 24 24 24 25 24 25 26 27 27 28 29 30 31 31 32 35
18 18 15 18 14 16 20 22 20 13 12 25 24 24 24 23 25 27 29 29 29 30 28 24 23 23 23 24 24 24 24 23 25 27 27 28 29 30 31 31 31 34 37 37
16 15 15 18 15 6 25 21 17 21 25 24 24 25 25 27 27 28 29 29 28 29 25 23 23 23 24 24 25 24 23 24 26 27 28 29 30 31 30 32 35 37 36 36
17 19 16 17 14 23 24 24 25 25 24 24 25 25 27 27 27 28 28 29 28 27 24 24 24 24 24 25 25 24 24 25 27 28 29 29 29 29 32 33 36 35 36 36
24 25 21 22 23 24 23 25 25 25 26 26 27 27 28 27 28 28 28 28 29 26 24 25 24 24 25 26 26 25 25 27 28 28 29 30 29 31 32 34 36 36 35 36
25 24 22 22 23 23 24 25 26 27 28 28 29 28 28 28 28 28 28 29 28 25 25 25 25 25 25 26 25 25 26 28 28 29 30 31 32 32 33 35 36 36 37 39
27 24 21 20 23 23 23 26 27 27 27 28 29 28 28 28 28 28 28 29 27 26 26 25 26 26 26 26 25 26 27 28 29 30 30 30 32 32 34 35 35 38 39 38

GFSCGP_sfc_30mbdewp_060.txt.gz
Dewpoint
25 13 20 23 18 11 11 13 13 14 19 23 22 23 23 26 28 27 28 27 23 20 19 20 22 23 23 23 23 23 24 25 26 25 25 24 24 25 25 27 27 28 28 28
19 7 11 14 18 17 18 16 15 18 25 25 24 22 24 26 27 28 28 28 26 22 18 19 20 22 22 22 22 22 23 24 25 26 27 26 25 26 27 29 26 28 27 27
16 19 21 21 21 19 19 17 17 18 23 23 23 19 20 24 27 28 29 28 27 24 19 17 18 20 20 21 22 22 23 24 25 27 27 27 26 26 25 25 25 27 27 27
19 23 22 21 20 21 18 24 23 23 21 16 23 12 15 21 23 25 27 27 26 24 20 18 18 18 19 20 21 22 24 25 26 27 26 24 23 23 24 25 27 25 25 26
18 23 22 21 22 24 21 26 24 23 20 19 18 15 8 20 21 21 25 27 26 24 21 19 18 18 19 20 21 23 24 26 28 27 26 25 25 25 26 24 22 23 25 27
25 26 24 25 26 26 26 21 22 25 22 12 16 13 11 16 20 18 19 26 26 25 22 20 19 20 20 21 22 25 25 27 29 27 27 25 23 21 19 19 21 23 26 27
22 24 23 25 24 24 20 19 14 5 13 4 20 16 15 17 15 15 18 21 26 26 24 22 20 20 20 21 23 27 28 28 27 25 24 21 18 18 19 21 23 24 26 27
14 13 22 21 21 19 21 18 10 3 8 14 18 14 15 16 15 20 23 25 26 26 25 22 22 21 21 21 24 26 28 27 24 19 17 19 21 22 23 24 25 26 27 28
15 14 18 18 19 21 21 20 20 14 11 8 10 8 15 13 13 17 20 23 24 25 24 22 22 21 21 22 24 25 26 23 18 18 20 21 22 23 24 25 26 28 29 29
12 9 15 16 18 19 19 19 14 13 3 -1 7 8 11 12 12 13 14 16 18 19 20 20 21 21 22 23 23 21 19 17 19 21 22 23 23 24 25 27 27 28 28 29
10 9 7 11 12 12 16 15 15 14 13 8 4 1 12 13 13 13 15 17 18 20 21 22 21 23 23 22 20 17 18 19 21 22 23 23 24 26 26 27 27 28 28 29
12 7 3 6 11 15 16 15 13 10 4 11 9 8 17 13 13 15 16 17 18 20 21 22 22 22 23 21 18 18 20 21 22 23 23 24 26 26 26 26 27 28 28 29
12 4 -2 4 13 16 9 12 15 16 16 11 7 7 12 15 14 16 16 20 21 22 23 22 22 22 23 20 19 20 21 22 22 23 24 26 26 26 26 27 27 28 28 28
16 9 2 -0 11 15 11 9 14 11 6 6 8 7 10 15 14 19 21 22 22 23 23 23 23 22 23 20 20 21 22 22 23 24 25 25 25 26 27 27 28 28 28 28
13 -0 11 13 15 16 15 13 12 10 9 9 10 11 14 16 19 20 21 22 22 23 23 23 23 23 23 21 21 22 22 23 24 25 25 25 26 27 27 27 27 28 28 29
18 9 17 13 20 20 18 19 16 16 15 13 13 13 19 21 22 22 22 22 22 23 24 25 25 25 24 22 22 23 23 23 24 24 25 26 26 26 27 27 28 28 29 29
18 17 17 16 17 17 13 16 18 18 17 15 13 15 22 22 23 24 24 24 23 23 25 26 27 27 25 22 23 23 23 24 24 25 25 25 26 27 27 27 28 28 29 30
19 19 18 15 14 1 7 19 19 17 19 21 21 22 23 24 25 26 27 25 24 26 26 28 28 27 24 24 23 24 24 24 24 24 25 26 26 26 27 28 29 29 30 31
21 19 16 12 12 10 11 18 17 17 16 23 22 24 25 25 25 22 25 26 27 28 28 30 29 24 23 23 24 24 24 24 24 24 25 26 26 27 28 29 30 31 31 32
21 20 15 17 6 -6 -1 17 18 18 14 25 25 23 22 24 17 19 25 28 29 29 29 30 26 24 23 24 24 24 24 24 23 24 26 26 27 28 29 30 31 31 32 36
17 17 15 18 12 13 17 19 20 12 7 26 23 23 24 23 24 26 28 28 29 30 29 26 23 23 24 24 24 24 24 23 24 26 27 27 28 29 30 30 30 33 34 37
14 13 14 18 15 4 22 23 17 19 25 24 24 25 24 26 27 27 28 28 29 29 28 24 23 24 24 24 25 24 24 24 25 27 27 28 29 30 29 30 32 34 36 36
17 17 15 15 10 19 25 22 24 24 23 24 25 26 27 26 26 27 28 28 29 29 25 24 24 24 24 25 26 25 24 25 26 27 28 29 30 30 31 32 34 35 36 35
22 24 20 21 21 24 23 25 25 25 26 26 27 27 27 26 27 27 28 28 29 28 26 25 25 24 24 26 26 25 25 26 27 27 28 30 29 31 31 33 35 35 35 35
23 25 23 22 23 23 24 25 26 27 27 27 28 28 27 28 27 28 28 28 29 28 26 26 25 25 25 26 26 25 26 27 28 28 29 29 28 30 31 34 35 36 36 38
26 23 20 16 23 23 23 26 27 26 26 28 28 26 28 28 27 28 27 28 29 28 27 26 25 26 26 27 26 25 27 28 28 29 28 28 29 31 33 34 34 37 38 39

GFSCGP_sfc_30mbdewp_063.txt.gz
Dewpoint
25 20 20 20 22 14 17 17 15 14 20 22 21 22 23 27 29 29 30 27 25 22 23 22 23 25 25 25 25 25 26 26 28 28 28 28 28 28 29 31 29 30 30 30
20 23 23 27 24 19 17 13 14 18 25 25 24 22 24 27 28 29 29 29 26 23 20 21 22 24 24 24 24 24 26 27 27 29 29 28 28 29 29 32 29 31 29 29
12 20 20 21 19 17 18 17 17 18 23 24 23 19 19 23 26 28 29 30 29 25 21 19 21 23 25 24 24 24 24 26 28 30 31 30 29 30 29 29 29 30 28 28
19 24 22 21 20 21 17 23 23 23 21 15 22 12 17 16 23 22 26 28 28 27 23 20 20 22 23 25 25 25 25 25 27 30 30 29 28 27 28 29 29 27 27 27
18 23 22 21 22 23 21 26 24 22 21 19 19 16 12 21 20 18 19 25 28 27 25 21 20 21 22 22 23 24 25 26 28 29 31 30 29 29 29 26 25 25 26 28
25 26 25 25 26 26 26 20 22 25 21 14 16 15 9 16 16 16 17 21 27 27 25 23 21 21 21 23 24 26 26 27 30 31 30 30 29 27 23 23 23 26 27 28
22 24 23 26 23 24 19 21 14 6 10 5 19 16 16 18 16 16 21 24 27 27 25 25 23 22 22 23 25 26 28 29 30 29 28 26 25 22 23 24 25 25 26 27
10 10 22 21 21 20 21 21 13 2 5 13 19 13 15 16 16 21 25 26 26 26 25 24 23 24 23 23 25 26 30 30 27 24 21 22 24 26 25 26 26 26 27 28
15 15 18 18 20 22 22 18 19 15 11 10 11 9 14 13 14 15 17 19 21 22 23 23 22 23 23 24 26 28 29 26 21 20 22 22 23 25 26 27 27 28 28 28
14 10 14 16 19 19 20 19 14 14 6 -1 5 8 11 12 13 15 17 18 21 22 22 22 23 24 24 25 24 23 22 20 21 23 23 24 24 25 26 27 26 27 27 28
10 10 7 12 14 17 17 16 15 14 11 6 4 2 11 13 14 14 16 18 21 22 22 23 22 23 24 22 20 19 20 21 22 23 24 24 25 26 26 26 26 27 27 26
12 9 6 6 11 15 17 16 14 10 7 11 10 6 15 14 15 16 17 19 22 24 23 23 23 23 23 22 20 20 21 22 24 24 24 24 26 27 26 26 25 25 25 26
10 4 -1 3 12 15 10 13 15 16 16 10 7 7 12 16 15 17 20 22 23 23 24 24 23 23 23 22 19 20 22 23 24 24 24 25 26 25 25 24 25 25 25 27
16 7 1 -1 10 15 11 8 16 13 10 10 11 10 11 14 15 20 21 22 23 24 24 25 26 25 25 24 20 21 23 23 24 25 25 25 25 25 25 26 26 25 26 27
10 -0 9 12 13 15 14 12 11 11 10 7 10 10 12 15 19 21 22 22 22 24 25 26 27 27 26 25 23 22 24 23 24 24 24 25 25 25 26 25 25 27 28 29
16 11 16 13 20 19 17 18 17 15 14 12 12 13 16 20 21 22 23 23 23 23 24 25 27 28 28 27 24 24 23 24 24 24 24 25 25 25 25 26 27 27 29 29
15 16 17 16 17 16 13 15 19 19 18 16 15 16 21 22 22 24 24 26 25 25 26 27 28 29 29 25 24 23 23 24 24 24 23 24 25 25 25 27 28 29 30 30
19 18 18 16 13 4 8 18 19 17 17 18 19 21 23 23 25 26 26 26 26 27 28 28 29 30 27 24 24 24 24 24 24 23 23 24 25 25 26 28 29 29 30 31
21 19 16 13 10 8 7 16 17 17 13 22 21 23 25 25 22 20 25 27 28 28 29 30 30 28 24 23 25 24 24 25 24 23 23 25 25 25 27 28 29 30 31 31
20 20 16 16 4 -9 -3 16 18 18 11 23 23 24 22 23 18 19 23 28 28 29 30 30 28 24 23 24 24 24 25 24 23 23 24 25 26 28 29 29 30 30 31 33
17 17 16 17 11 11 15 18 19 10 7 26 24 23 24 20 21 24 28 28 29 30 30 30 24 24 24 25 24 24 25 24 24 25 26 26 27 29 30 30 30 32 33 34
13 13 14 18 14 1 22 20 16 19 26 24 24 24 24 25 26 27 28 28 29 29 30 25 24 24 25 25 25 25 25 25 25 26 27 27 28 29 30 30 32 32 34 35
14 15 14 14 9 18 25 22 23 25 24 24 24 25 26 26 25 27 27 28 28 29 29 26 25 25 26 25 26 25 25 25 26 27 27 28 29 28 29 30 31 34 35 35
22 23 20 19 20 21 25 25 25 25 25 26 26 27 27 25 26 27 27 28 28 29 29 26 26 26 25 26 27 27 26 26 27 27 27 28 27 28 29 30 33 35 35 34
20 24 21 22 23 23 24 25 26 27 27 27 28 27 26 27 26 27 27 28 28 29 29 27 27 26 26 26 27 27 26 27 28 27 27 26 27 27 29 32 34 35 36 37
26 23 19 15 21 22 23 25 27 26 26 26 26 25 27 28 27 28 28 28 28 29 29 28 28 26 26 27 27 27 27 28 29 27 27 27 30 30 32 34 34 37 38 38

GFSCGP_sfc_30mbdewp_069.txt.gz
Dewpoint
34 37 36 37 35 34 35 35 35 38 22 23 24 26 25 22 27 29 28 26 27 30 33 33 32 30 26 25 25 26 24 22 24 25 26 27 27 28 28 30 28 28 29 28
31 34 37 38 38 35 32 32 34 32 25 25 36 30 23 22 25 27 27 28 27 28 30 30 29 27 25 25 24 25 24 24 25 27 28 28 27 29 29 32 31 31 30 28
32 33 34 40 30 28 30 31 30 27 28 31 23 21 16 24 24 24 26 29 28 28 28 28 27 27 26 25 25 25 24 25 26 28 30 32 29 34 32 32 32 32 30 28
35 30 30 31 35 32 32 31 28 23 20 16 21 11 14 18 21 19 22 26 29 29 29 27 26 27 27 26 26 26 25 24 27 29 30 31 31 31 31 31 32 32 30 27
25 22 28 31 28 31 30 24 22 23 18 17 14 16 8 19 20 19 24 28 30 31 30 28 27 26 26 27 27 27 26 25 26 27 31 33 32 33 32 32 31 30 28 28
25 28 27 27 29 25 27 24 24 23 18 12 8 15 8 16 18 19 26 28 29 30 30 28 26 26 27 27 29 30 28 26 26 28 29 32 35 34 33 31 29 28 28 29
22 23 26 27 25 27 24 19 12 15 17 8 16 14 13 18 21 25 27 27 28 29 30 28 26 26 27 28 30 31 31 29 28 28 30 32 33 34 32 28 27 27 27 28
18 19 24 24 24 21 21 18 10 5 4 9 19 11 17 18 22 26 27 27 27 28 29 29 29 29 29 29 29 29 29 27 29 29 30 32 30 30 29 28 28 28 28 28
20 20 21 22 24 24 22 14 21 13 12 9 6 15 15 17 19 22 24 25 25 26 26 26 26 26 27 28 28 29 29 30 30 30 27 26 25 26 27 28 28 29 28 27
16 17 20 21 23 23 24 22 16 15 8 7 7 6 8 15 16 18 19 22 23 23 24 24 25 25 25 26 26 26 26 26 26 25 25 25 26 27 27 27 27 27 26 26
17 15 17 20 21 20 20 18 17 18 14 7 4 8 15 15 15 16 19 22 23 23 23 23 23 24 25 24 24 23 23 23 24 25 26 26 26 27 27 27 26 25 24 22
18 17 13 14 15 17 20 18 18 13 11 9 9 8 14 16 16 18 19 22 24 25 24 24 24 24 23 24 24 24 24 24 26 27 26 26 27 27 27 26 25 23 20 20
17 13 8 11 13 13 12 14 14 15 16 11 8 11 14 16 17 18 20 22 23 24 24 24 24 24 24 24 24 24 24 24 26 26 26 26 27 27 26 25 22 21 20 19
23 13 11 10 17 13 10 12 13 12 11 12 12 12 15 16 17 18 21 22 23 24 25 25 26 25 24 22 22 23 25 25 25 26 26 27 27 27 25 22 21 21 20 20
19 10 7 8 10 12 11 12 12 12 11 10 12 12 13 14 16 18 21 22 22 23 24 24 25 23 22 22 23 24 25 26 26 26 26 26 26 24 21 21 22 21 20 22
17 13 11 10 14 15 14 14 13 12 13 12 13 14 17 18 18 19 21 21 23 23 24 24 23 22 22 23 24 24 25 25 26 26 26 25 22 21 21 22 21 21 22 23
13 16 17 16 19 19 17 19 19 19 18 16 13 18 20 19 19 20 22 24 23 24 24 22 21 22 24 26 26 25 25 26 26 26 23 21 21 20 21 21 21 22 24 24
18 20 22 23 20 14 17 19 18 18 17 19 20 21 22 22 22 23 25 24 24 23 22 22 22 24 26 27 26 26 26 27 26 23 21 21 21 21 21 21 22 23 24 26
24 21 23 24 17 11 11 15 16 14 9 18 18 21 23 25 26 24 25 25 23 22 22 22 24 25 25 26 26 26 27 27 23 22 22 22 21 21 22 22 23 24 26 28
22 22 21 18 19 10 10 17 20 20 9 21 20 23 23 25 19 23 25 22 22 22 23 25 26 26 25 25 26 27 26 24 22 23 23 23 23 23 22 22 23 26 28 29
18 20 18 17 19 14 15 19 22 8 15 23 23 23 24 24 25 25 22 21 22 23 24 26 27 26 26 26 27 26 25 22 23 25 24 24 24 22 21 22 25 27 28 28
18 20 18 16 18 12 20 21 15 25 26 26 26 26 26 27 24 22 22 22 22 24 25 25 26 27 27 27 27 26 25 24 25 25 24 24 23 21 21 23 27 27 28 33
17 12 15 18 20 22 21 25 28 28 26 27 27 27 26 24 20 21 22 22 23 24 25 25 26 27 27 27 27 26 27 25 26 25 24 24 22 20 21 26 28 30 33 34
18 23 18 21 16 20 22 22 26 27 26 28 27 28 23 21 20 20 21 22 23 24 25 27 27 27 26 27 28 28 27 26 26 25 24 24 21 21 24 28 29 33 34 34
20 22 15 16 17 24 24 23 25 27 27 27 26 24 21 21 21 21 22 23 24 25 26 27 28 28 28 28 28 28 27 27 26 25 25 23 22 24 28 29 30 35 36 36
22 15 16 10 17 18 20 25 27 28 28 26 23 22 23 23 22 23 24 25 26 26 27 27 28 28 29 29 29 28 28 28 27 26 26 23 24 27 29 30 32 33 36 37

GFSCGP_sfc_30mbdewp_072.txt.gz
Dewpoint
36 38 38 36 38 39 36 36 36 35 35 40 42 35 37 37 28 28 29 28 27 34 37 38 37 34 29 27 27 27 26 23 26 26 28 29 29 30 30 32 29 29 30 30
34 37 37 37 35 35 34 35 38 39 26 29 33 38 39 38 29 28 27 27 28 28 34 34 33 31 27 26 26 26 25 24 27 29 30 31 31 33 33 35 33 32 31 31
35 34 36 35 36 35 35 33 33 32 28 34 35 29 31 25 25 25 25 28 30 29 29 32 31 29 28 26 26 26 25 25 29 29 32 33 34 34 34 34 34 34 33 31
32 35 33 39 37 35 32 32 33 31 28 29 25 18 18 24 24 22 26 29 30 31 30 31 30 29 28 28 27 27 26 26 27 31 31 33 34 33 35 35 37 37 33 31
33 33 35 33 36 35 31 29 32 32 26 21 22 19 17 21 22 23 27 29 30 31 31 30 29 29 28 28 28 28 27 26 28 29 32 34 36 36 37 35 33 33 32 31
27 28 33 33 28 27 28 25 24 22 21 15 16 16 16 19 19 24 27 28 30 30 31 29 29 29 28 31 31 31 29 29 28 30 30 34 34 36 36 36 34 33 33 33
25 26 28 30 28 28 26 23 21 22 18 16 15 14 19 19 24 26 27 28 29 30 30 27 28 29 30 31 32 33 33 32 31 29 31 32 35 36 36 33 31 30 30 30
22 21 26 27 25 24 25 22 17 13 15 17 17 12 18 21 26 27 28 28 29 30 31 29 28 28 28 30 31 32 32 31 31 30 32 33 32 32 32 31 30 30 30 31
24 21 22 23 24 24 23 19 22 16 11 9 12 16 17 20 23 25 26 27 28 28 28 28 28 28 29 29 28 28 30 31 31 30 30 28 28 29 29 30 29 31 31 30
20 19 21 22 23 23 25 22 18 16 9 10 10 14 15 17 20 23 24 24 25 25 26 26 26 26 26 27 26 26 26 26 27 26 26 27 27 28 28 29 29 29 29 28
22 16 19 21 22 21 20 20 18 18 17 10 8 12 17 17 18 19 21 23 24 24 24 24 24 26 25 25 25 24 24 24 25 27 28 27 27 28 28 28 28 28 28 25
21 21 15 16 15 17 20 20 18 15 13 13 10 12 16 17 18 19 22 24 25 25 25 24 24 24 25 25 26 25 24 25 26 27 27 26 27 28 28 28 27 26 23 22
24 16 11 13 14 14 15 17 19 16 18 16 12 13 16 17 17 19 22 24 25 25 25 25 26 26 25 23 22 23 25 25 26 27 27 27 28 28 29 27 25 22 22 22
25 19 14 14 18 14 9 11 14 14 12 11 13 15 15 17 18 19 21 23 24 25 25 27 26 25 23 22 22 23 24 26 27 27 27 27 28 28 26 24 23 23 23 22
21 16 8 9 10 10 11 12 13 12 12 11 13 13 16 17 18 19 22 23 22 24 25 25 24 23 22 22 23 24 26 27 27 26 26 27 27 24 23 23 23 23 23 22
18 17 11 8 13 14 14 13 13 13 13 13 13 14 20 19 18 18 21 22 22 23 25 24 22 22 22 23 25 25 25 26 26 26 27 26 23 22 23 23 23 22 23 24
15 16 18 19 20 19 18 19 19 17 17 17 15 20 20 19 19 20 21 23 24 25 24 22 22 22 24 26 26 26 26 27 27 27 25 22 22 22 23 23 23 23 24 24
18 19 24 25 22 15 19 19 20 20 18 19 22 23 22 21 21 22 26 25 24 24 22 22 22 24 25 26 27 27 27 28 28 25 23 23 23 23 23 23 24 24 24 25
24 23 25 24 22 18 15 16 15 13 13 19 18 22 23 25 26 25 25 24 23 22 22 23 25 25 25 25 26 27 27 28 26 23 23 24 23 23 24 24 24 24 25 28
22 22 23 22 19 6 15 16 20 20 10 20 19 22 23 26 22 25 24 22 22 22 23 25 27 27 25 26 26 27 27 26 25 24 25 25 24 24 25 24 23 23 27 27
21 21 21 21 22 21 17 19 22 10 17 22 22 23 24 25 27 25 21 21 22 23 24 26 26 27 27 27 27 27 27 26 26 26 26 26 25 25 24 22 23 28 28 28
20 22 20 19 19 15 21 21 17 25 26 26 25 27 29 27 24 23 22 22 23 24 25 26 26 27 28 28 27 27 27 28 26 26 26 26 26 24 23 22 27 28 28 31
17 19 20 21 23 24 22 26 29 29 28 27 27 27 29 26 22 21 22 22 23 24 25 26 27 27 28 28 28 28 28 28 26 26 26 26 25 24 22 27 28 28 31 33
20 23 19 17 19 23 22 24 28 28 27 29 30 28 26 22 20 20 21 22 23 25 26 27 27 28 28 29 29 29 29 28 27 27 26 26 25 24 25 28 28 30 33 34
22 22 17 16 18 22 23 23 26 28 28 28 29 26 23 22 21 21 22 23 25 26 27 28 28 29 29 30 30 29 29 28 28 28 26 27 25 25 27 27 29 33 36 35
23 20 16 17 18 21 25 27 27 28 28 28 25 23 23 22 22 23 24 25 26 27 29 29 29 30 31 31 30 30 30 29 29 28 28 28 27 27 27 29 31 33 33 34

GFSCGP_sfc_30mbdewp_075.txt.gz
Dewpoint
35 36 37 42 41 40 37 35 36 40 46 44 44 43 41 36 37 33 27 29 29 38 41 44 36 32 29 28 27 27 26 24 25 26 26 27 27 30 30 32 30 31 31 31
34 35 38 41 42 40 40 38 39 32 39 32 38 38 36 37 38 30 29 27 28 29 37 38 31 28 27 27 27 27 24 24 25 27 29 29 30 32 31 33 30 31 30 30
34 35 39 40 37 39 39 37 39 37 39 33 33 33 34 34 30 26 27 29 30 30 34 34 30 26 26 26 27 26 25 24 27 28 31 34 35 35 34 34 33 32 32 32
35 39 37 38 37 37 34 36 36 30 30 28 33 23 21 26 23 26 28 29 30 31 32 32 30 27 26 25 27 26 26 25 28 29 31 32 32 31 32 33 35 35 35 32
37 38 35 35 38 38 36 35 33 30 29 23 24 19 18 24 22 26 28 29 30 31 31 31 29 27 26 27 26 27 26 26 28 30 32 32 33 36 37 37 36 36 34 33
35 37 36 30 31 35 30 28 27 25 23 18 20 19 17 21 22 27 28 29 30 30 30 30 29 28 28 29 28 28 28 29 29 30 33 32 32 33 35 36 35 34 34 33
31 27 31 37 28 32 28 24 20 17 15 12 17 19 16 21 24 27 27 28 29 29 28 29 29 30 32 32 33 32 31 31 32 30 30 32 34 35 36 34 32 30 30 30
23 21 28 31 31 24 27 23 21 18 18 19 17 13 17 24 27 28 28 29 30 30 29 28 28 28 29 30 31 32 32 32 32 31 31 33 34 34 32 30 30 30 30 31
29 21 24 26 28 26 24 21 23 15 13 12 17 16 19 26 26 27 27 28 28 28 27 27 27 27 27 27 27 28 30 30 28 26 27 27 28 29 30 30 29 30 31 31
23 19 23 22 23 23 25 23 14 16 4 8 13 15 14 22 25 25 25 26 26 26 26 25 25 26 26 25 25 24 24 24 25 26 27 28 28 28 28 28 28 28 29 29
23 22 20 21 21 21 18 20 19 18 18 11 8 11 17 20 23 24 24 24 25 25 25 25 25 25 25 24 24 24 24 24 26 28 28 27 27 28 28 28 28 27 26 24
22 20 16 17 15 17 20 20 18 13 11 13 12 11 17 19 22 23 23 24 24 24 24 24 25 25 25 25 25 25 24 24 26 27 27 27 28 29 28 28 26 24 22 23
23 17 12 12 14 13 16 18 19 19 20 15 11 12 17 18 20 22 24 24 25 25 24 25 25 23 22 22 22 24 25 26 26 27 27 27 27 28 28 26 24 23 23 23
26 20 14 15 17 15 9 11 17 15 12 10 13 14 15 17 19 22 24 25 25 25 26 27 24 23 22 22 23 24 25 27 27 27 27 27 28 27 24 23 23 23 23 23
21 15 10 9 9 9 11 12 13 12 13 10 14 14 15 16 18 20 23 24 25 25 26 25 23 22 22 23 25 25 26 26 26 26 27 27 26 23 23 23 23 23 23 23
19 17 14 9 12 13 11 12 14 13 13 12 14 15 20 19 20 20 22 23 24 25 24 22 22 22 23 25 26 25 26 26 27 27 27 25 22 23 23 23 23 23 23 24
14 15 19 18 20 19 16 19 18 16 15 14 13 17 19 18 19 20 22 23 24 24 22 22 22 23 25 26 26 26 27 27 27 27 26 23 23 23 23 23 23 24 24 24
17 20 24 24 22 13 18 19 19 19 20 21 22 21 21 20 23 25 25 25 23 22 21 22 24 25 25 26 26 27 27 28 28 27 24 23 24 24 24 24 24 25 25 24
24 25 23 19 22 20 15 15 13 14 15 20 21 23 23 25 25 24 24 23 22 22 23 25 26 26 26 25 26 27 27 27 27 25 24 25 25 24 25 25 25 25 23 25
22 22 23 23 14 2 14 16 20 15 -8 20 21 23 24 25 19 24 23 22 23 24 25 25 26 27 27 27 27 27 27 27 26 26 25 26 26 25 25 25 24 23 28 28
19 20 19 22 18 20 23 18 21 -12 0 21 22 24 25 23 25 25 22 22 23 24 25 26 26 27 27 28 27 27 27 27 27 26 26 26 26 26 26 24 24 28 28 28
18 19 18 22 20 10 20 19 4 14 26 24 25 28 28 26 23 22 23 23 24 24 25 26 26 27 27 28 28 27 27 28 28 27 27 27 27 26 25 25 27 27 28 29
18 21 20 19 17 24 22 22 28 28 26 26 27 30 26 24 22 23 22 23 23 24 25 26 27 27 28 28 29 28 29 29 28 27 27 27 26 26 24 27 27 27 29 31
22 23 17 17 19 23 22 28 28 27 28 29 29 29 26 23 22 22 22 23 23 25 26 27 28 28 28 29 30 30 29 29 28 27 28 27 27 28 26 27 27 29 31 34
19 20 17 18 18 23 23 24 28 28 29 30 28 26 23 22 21 22 23 24 25 26 28 29 28 29 29 31 31 31 30 29 28 28 28 28 28 27 27 27 28 31 35 36
23 19 15 10 16 19 23 25 29 28 29 28 25 22 23 23 22 24 24 26 27 28 28 28 29 30 30 31 31 31 31 30 29 29 28 29 30 28 28 29 30 32 33 32

GFSCGP_sfc_30mbdewp_078.txt.gz
Dewpoint
33 31 35 39 38 38 36 35 35 38 42 38 36 38 40 44 43 42 40 28 30 38 43 48 47 40 33 28 27 27 27 26 27 27 27 28 28 30 31 33 32 31 31 31
35 34 38 41 42 38 37 36 37 34 46 40 43 41 43 43 39 38 33 29 29 30 41 40 38 32 30 27 27 27 26 25 25 27 28 28 28 30 31 33 32 32 31 31
33 35 37 41 42 40 39 39 36 35 40 34 35 34 33 36 36 29 28 29 31 30 39 35 31 30 28 28 27 25 25 24 25 27 31 34 35 35 33 34 32 31 31 31
35 37 38 39 39 41 39 40 40 37 34 33 34 29 21 28 27 27 28 29 30 31 36 32 27 27 27 27 27 26 24 24 26 29 30 31 31 31 32 33 34 34 34 32
34 39 37 37 38 40 38 37 39 40 34 27 29 25 20 24 24 26 28 29 29 30 32 33 27 26 26 27 27 26 26 25 27 29 31 31 32 33 35 37 37 36 36 35
36 40 40 36 37 39 35 33 32 30 26 25 25 27 18 22 23 27 28 29 29 30 30 32 28 26 27 28 27 27 26 26 28 29 32 33 32 34 36 36 36 34 34 33
35 34 37 41 35 35 34 32 25 22 20 21 19 21 21 20 25 27 27 29 28 29 30 30 28 28 30 31 30 31 31 31 30 30 32 33 33 33 33 35 33 31 30 30
30 31 29 33 32 33 32 33 21 16 14 15 19 17 16 24 27 28 29 30 29 28 28 29 30 30 31 31 32 32 32 32 32 31 32 34 36 36 34 32 31 30 30 30
32 26 25 28 31 29 25 23 23 16 16 16 16 17 21 27 27 28 28 28 28 28 28 28 28 28 27 28 28 31 31 28 26 27 27 27 28 29 29 29 29 30 31 31
23 20 24 23 25 27 25 27 18 16 8 8 13 15 15 25 26 27 27 27 27 26 26 26 26 26 25 25 24 24 25 25 25 27 27 27 27 28 28 28 28 28 28 26
23 23 20 21 21 24 22 22 20 18 17 11 9 13 17 23 26 26 26 26 26 25 25 24 24 25 24 24 24 24 24 24 26 27 27 27 27 28 29 29 28 26 24 23
22 22 16 17 16 16 21 19 18 15 12 14 12 10 17 22 26 26 25 25 26 25 25 25 25 25 25 25 25 25 25 25 25 28 27 27 28 28 28 28 26 24 23 23
22 20 13 13 14 13 17 19 19 20 20 15 11 10 17 19 24 25 24 25 25 24 24 25 24 23 21 22 23 24 26 26 27 27 27 27 27 28 28 25 23 23 23 23
25 22 15 11 15 14 10 14 18 16 14 13 13 13 16 19 22 23 24 24 24 24 25 25 23 22 22 23 24 25 26 27 27 27 27 27 28 26 23 23 23 23 23 23
21 16 11 12 11 9 11 11 15 14 13 11 12 14 15 18 21 22 24 25 24 25 26 25 23 22 22 24 25 25 26 26 26 27 27 27 26 23 23 23 23 23 23 23
20 14 15 8 12 14 10 12 14 14 13 13 14 14 19 18 20 22 24 24 25 25 26 23 22 22 24 25 25 26 26 27 27 27 27 26 23 23 23 23 24 24 24 24
14 16 18 14 21 20 17 19 16 14 15 13 12 14 18 18 19 19 22 24 25 25 22 22 22 24 25 25 26 26 26 27 27 27 27 25 23 24 24 24 24 24 25 25
15 22 25 23 22 13 17 19 19 19 19 20 20 19 19 20 24 24 24 24 24 23 22 23 24 25 25 25 26 27 27 27 27 27 26 25 24 25 25 25 25 25 25 24
25 25 22 17 19 19 20 16 10 18 17 23 21 22 23 25 24 23 24 24 22 22 23 25 26 26 26 26 26 27 27 27 27 26 26 25 25 25 25 25 26 26 24 27
22 26 22 22 16 8 11 16 20 5 -5 19 23 23 24 25 19 22 23 22 23 25 25 25 26 27 27 27 27 27 27 27 27 27 26 26 26 26 26 26 26 24 28 27
17 18 19 22 19 19 21 18 19 -12 -11 20 23 24 26 23 22 24 23 23 24 25 25 26 26 26 27 27 28 27 27 27 28 28 27 27 27 27 26 26 24 27 27 27
17 16 16 22 20 11 20 18 4 4 25 24 25 26 27 26 23 23 23 24 24 24 25 26 26 26 27 28 28 28 28 29 29 29 27 27 27 27 26 25 27 27 27 28
18 19 16 20 17 22 21 14 19 27 25 26 27 28 25 23 22 23 23 24 24 24 25 26 27 27 28 29 29 29 29 30 30 27 27 28 27 27 26 26 27 27 28 30
22 25 21 19 18 22 24 24 28 28 27 28 29 27 25 23 23 22 23 23 24 25 25 27 28 28 28 30 30 30 30 30 28 28 28 28 28 30 27 27 28 28 30 32
19 21 18 18 18 19 24 24 28 28 30 29 29 26 24 23 23 23 23 24 25 26 28 29 28 29 29 31 31 31 31 31 29 29 29 28 30 29 28 28 28 30 32 35
23 19 16 13 14 14 16 24 28 29 29 27 26 24 23 23 23 23 24 25 26 27 28 28 29 29 30 31 31 32 32 31 30 29 29 30 30 28 29 29 29 31 32 33

GFSCGP_sfc_30mbdewp_081.txt.gz
Dewpoint
30 31 34 36 38 37 37 36 34 35 38 37 39 39 39 46 47 45 41 36 32 37 47 54 53 49 42 40 36 32 28 28 28 29 29 30 29 31 32 32 31 31 33 34
32 30 33 37 41 38 37 35 35 36 44 38 38 37 42 43 44 42 43 38 30 36 45 51 47 39 39 35 33 30 28 27 28 28 29 29 29 30 31 33 33 33 32 32
29 34 37 41 42 38 38 36 36 36 42 35 40 38 38 39 41 33 30 31 29 31 42 46 42 36 30 31 30 28 27 26 27 28 31 33 35 34 32 33 32 31 32 32
33 38 38 39 40 40 36 41 39 38 38 36 37 34 31 28 32 29 29 30 30 31 39 39 38 34 29 27 27 27 26 25 27 29 29 29 28 28 31 32 33 33 32 32
34 38 36 37 37 41 37 41 41 39 37 34 31 30 29 24 26 27 28 29 29 30 34 35 33 33 29 27 27 26 25 25 26 29 30 30 30 31 33 35 35 37 37 36
37 41 41 38 39 41 40 35 35 34 32 31 31 31 28 21 23 26 28 29 29 30 31 32 28 28 28 28 27 26 25 25 28 29 32 31 31 33 35 36 36 35 35 34
37 37 39 41 36 38 36 35 29 29 30 27 24 28 29 20 23 26 27 28 28 29 31 29 27 27 28 28 28 28 28 28 29 29 31 32 33 33 34 34 35 33 31 31
31 28 33 37 36 35 35 36 28 25 23 23 22 19 20 25 27 28 29 28 29 29 29 29 29 30 30 30 31 31 32 32 31 32 33 34 36 36 35 33 31 31 30 31
33 32 37 32 34 36 33 33 31 20 17 18 17 17 20 27 27 28 28 28 27 28 29 29 29 29 30 31 32 32 29 28 28 27 28 28 29 29 29 30 30 30 30 30
30 29 26 34 30 29 27 33 24 32 11 9 11 15 15 25 26 27 28 27 26 27 27 27 27 26 26 26 27 27 27 26 26 27 27 27 27 28 28 28 28 28 27 25
23 25 21 22 21 26 23 22 20 18 15 10 9 11 18 22 26 26 27 27 26 26 26 26 25 24 24 24 24 24 24 25 26 27 27 27 28 28 29 28 28 26 25 23
23 21 15 18 19 16 24 21 20 21 16 14 12 10 17 19 27 27 27 27 26 26 25 25 24 24 24 25 25 25 25 25 26 28 27 28 28 28 28 28 26 24 23 23
21 23 16 13 15 14 19 20 20 20 19 13 11 11 18 23 26 27 26 26 26 26 25 25 25 24 22 23 24 25 26 26 27 27 27 27 27 28 27 25 23 23 23 23
25 23 17 12 15 14 11 15 19 17 15 14 14 13 15 21 25 25 25 26 25 25 25 25 23 22 22 23 24 25 26 27 27 27 27 27 27 26 24 23 23 23 23 23
21 18 13 12 15 9 10 11 16 15 15 15 15 14 15 18 23 25 25 25 25 24 25 24 22 22 23 24 25 26 26 26 27 27 27 27 27 24 23 23 24 24 24 24
20 14 16 9 11 16 14 11 14 15 14 13 14 14 19 19 22 23 24 24 24 24 26 24 22 22 23 25 25 25 26 27 27 27 27 27 25 24 24 24 24 24 25 25
15 15 16 8 23 21 18 20 17 14 14 13 11 14 18 17 19 21 24 24 24 25 25 23 22 24 25 26 26 26 26 27 27 27 27 27 25 24 24 25 25 25 25 25
15 21 25 19 23 13 17 19 19 18 18 18 18 18 19 20 23 24 24 25 25 24 22 23 24 25 25 25 26 27 27 27 27 27 27 26 25 25 25 25 26 26 26 25
24 24 20 17 18 18 17 17 9 16 14 22 19 20 22 24 23 23 24 25 24 22 23 24 26 26 26 26 27 27 27 27 27 27 27 27 25 25 26 26 26 26 25 26
24 26 21 22 16 10 9 16 19 3 -2 20 22 22 22 23 15 19 23 23 23 24 25 25 26 27 27 27 27 27 27 27 27 28 28 27 26 26 27 27 26 25 26 27
16 19 19 22 18 18 21 18 16 -7 -6 18 24 24 24 21 21 23 23 24 25 25 25 26 26 26 26 27 28 27 28 28 28 29 29 27 27 27 27 27 25 26 27 27
16 15 16 22 19 9 22 18 3 7 24 24 25 26 26 26 25 23 23 24 24 25 26 26 26 26 27 28 28 28 28 29 30 30 28 27 28 27 27 26 26 27 27 27
19 19 15 19 14 22 21 13 18 25 23 25 26 28 26 24 23 23 24 24 24 25 25 26 26 27 28 29 29 29 30 30 30 28 27 28 28 28 29 27 27 27 28 29
22 25 22 20 18 21 23 24 26 27 25 27 28 27 25 23 24 23 24 24 24 25 25 27 28 28 28 30 31 31 31 31 30 28 28 29 28 31 29 28 28 28 29 30
21 23 20 19 19 19 19 24 26 28 29 29 28 25 24 24 23 23 23 23 24 26 27 29 28 29 29 30 31 32 32 31 30 29 29 29 30 29 28 29 29 29 31 32
23 19 17 16 16 13 12 22 28 29 28 29 26 25 25 24 23 24 24 25 26 27 28 28 29 29 30 31 31 32 32 31 30 29 29 30 31 28 28 28 28 30 32 31

GFSCGP_sfc_30mbdewp_087.txt.gz
Dewpoint
31 30 30 32 30 28 36 37 35 36 38 39 39 38 38 44 46 42 43 47 49 51 50 51 57 61 63 63 62 60 56 49 42 34 33 32 32 33 34 35 35 36 36 36
31 29 30 33 33 31 23 32 33 40 41 38 40 39 42 44 44 45 43 40 42 39 45 51 55 59 60 61 59 56 55 46 39 34 33 33 32 33 34 36 35 36 36 36
28 27 33 32 34 32 25 29 35 35 38 39 39 37 39 42 44 45 45 46 46 44 38 46 51 53 56 57 55 53 49 43 38 33 33 34 35 35 34 35 35 35 34 35
34 33 31 33 32 34 28 34 38 40 37 32 37 32 36 38 39 40 42 37 40 38 37 43 50 47 49 53 51 48 46 37 33 33 32 32 31 31 33 34 36 35 35 34
33 35 35 30 32 37 32 42 40 41 38 36 33 34 35 26 32 34 34 31 31 31 33 42 47 43 43 44 44 44 37 31 31 32 34 33 32 33 35 35 35 36 37 36
39 41 41 36 41 42 41 39 39 37 36 31 34 34 34 32 30 26 28 30 30 30 31 37 41 36 36 39 41 35 31 30 31 32 33 33 33 33 35 36 37 37 37 36
35 37 41 41 37 40 40 34 32 30 30 29 27 33 32 29 23 24 27 29 29 29 31 32 34 34 32 35 34 32 31 29 29 30 32 33 34 34 35 36 37 37 34 34
33 29 35 37 37 34 37 37 33 25 27 29 27 27 31 24 28 29 29 29 29 29 31 30 31 33 32 32 30 29 29 29 29 31 32 34 36 36 36 37 35 33 33 33
32 32 36 38 37 38 36 34 34 20 18 23 25 21 20 26 28 28 27 28 29 30 30 30 31 31 30 31 31 31 31 32 32 33 34 35 35 35 33 33 32 32 32 32
34 29 34 39 34 30 36 37 32 33 21 15 12 16 24 22 25 28 26 27 28 29 29 30 30 31 32 32 31 31 31 30 29 29 29 29 29 30 31 31 31 31 29 28
37 31 28 37 33 27 29 27 31 33 28 22 18 13 18 18 24 27 27 27 28 29 28 28 28 29 30 28 28 27 28 27 28 28 28 29 29 29 29 29 29 28 27 26
25 24 23 32 32 21 25 24 32 30 22 17 15 19 17 17 19 28 28 27 28 28 27 26 25 25 25 25 26 26 27 27 29 29 28 29 29 29 29 29 27 26 25 25
22 24 18 18 23 27 30 27 22 22 21 20 14 18 17 23 23 28 28 27 27 27 26 25 24 24 25 25 26 26 27 28 28 28 28 29 29 29 28 27 25 24 24 24
26 22 20 16 13 17 26 23 21 19 18 17 15 17 17 17 24 27 28 28 27 27 25 25 24 24 24 25 26 26 27 28 28 28 28 28 28 27 26 25 24 24 24 24
20 14 18 16 15 16 11 11 17 19 18 15 16 16 16 16 18 27 28 28 27 26 25 25 24 23 24 25 25 26 27 27 27 28 28 28 28 28 25 25 25 25 25 25
19 15 17 14 20 15 14 15 12 15 17 17 16 16 17 19 24 26 27 27 26 26 26 25 23 23 24 25 25 26 27 27 28 28 27 29 28 27 26 26 25 26 27 27
16 15 17 10 21 23 17 18 20 15 15 15 12 15 17 17 21 24 26 27 27 26 26 24 23 24 25 25 26 26 26 28 27 27 28 28 28 27 27 26 26 27 27 27
18 20 24 17 18 5 16 20 19 19 18 16 15 17 20 20 23 23 24 26 26 26 26 24 24 25 26 27 27 27 27 27 27 27 28 28 28 28 28 26 27 27 28 27
21 23 18 15 16 15 13 16 12 15 13 6 19 21 22 23 22 22 24 26 26 26 24 24 26 26 26 27 27 27 27 28 27 28 28 29 29 28 27 27 28 28 28 27
26 26 21 20 13 9 13 15 19 6 -6 16 22 21 21 22 12 16 24 25 25 25 25 26 26 26 27 27 28 28 28 28 28 29 29 30 29 28 28 28 28 28 27 26
17 20 17 20 17 17 21 21 15 -2 -1 16 24 23 23 19 19 23 24 25 26 26 26 27 27 26 27 28 28 28 28 28 29 30 30 30 28 28 29 28 28 28 28 28
16 15 16 21 18 7 23 18 5 8 19 22 24 25 24 25 24 24 25 25 25 26 27 26 26 27 28 28 28 28 29 30 31 31 30 29 29 29 29 30 29 28 28 28
20 19 17 19 15 21 22 19 16 18 22 23 24 26 26 25 24 25 25 25 26 26 26 27 27 28 29 29 30 29 30 31 31 31 30 29 30 29 31 30 28 28 28 28
24 24 21 21 20 21 22 23 23 23 24 25 27 28 27 24 25 25 25 25 25 26 26 27 28 27 28 30 31 31 32 32 31 30 30 30 30 32 31 29 29 28 28 29
25 24 22 21 21 20 19 19 21 24 27 27 27 28 26 25 25 25 25 25 25 26 28 29 28 28 29 30 31 32 32 32 31 30 30 30 31 31 30 29 28 29 30 31
24 23 21 20 21 19 19 16 23 23 27 28 26 25 26 25 25 25 25 25 26 27 28 28 29 29 29 31 32 32 33 31 30 30 30 31 31 30 29 27 27 28 30 30

GFSCGP_sfc_30mbdewp_093.txt.gz
Dewpoint
28 28 25 24 24 23 19 17 15 12 8 13 23 30 33 32 43 42 43 44 44 45 50 53 55 56 57 60 59 64 65 64 58 54 46 43 38 37 36 35 32 31 33 33
30 29 31 30 30 27 22 17 16 14 12 15 20 25 30 32 41 42 44 44 44 43 46 52 55 57 60 59 57 65 65 64 61 57 48 44 39 38 37 37 33 33 33 33
30 31 31 30 28 26 23 18 17 16 13 17 25 21 27 29 40 41 43 45 44 43 46 50 53 55 57 54 59 62 65 63 61 59 47 44 41 38 36 36 35 34 34 35
33 34 34 31 28 26 21 22 20 19 16 19 26 26 23 28 38 40 42 42 42 44 46 47 50 51 52 56 61 64 64 63 60 55 48 42 40 37 36 36 35 35 34 34
31 34 34 33 28 29 24 24 21 20 18 23 33 26 18 23 30 37 41 42 42 42 46 45 48 50 54 58 60 61 62 60 58 51 46 42 39 34 33 33 34 33 34 33
32 35 37 35 35 34 31 26 25 26 24 26 35 36 17 21 24 29 37 42 44 47 46 46 45 49 53 58 60 60 60 58 54 49 44 41 37 35 33 33 34 34 35 37
32 32 33 35 35 31 33 28 29 29 31 28 34 35 35 35 31 30 33 38 43 44 42 40 44 48 49 55 57 58 57 55 51 44 40 38 38 33 32 34 32 35 36 37
31 30 32 32 36 34 32 29 31 26 27 31 34 31 30 33 30 29 29 34 36 35 35 38 42 45 48 52 54 56 55 47 42 39 37 37 37 34 33 34 34 35 36 36
29 31 33 32 35 35 31 33 39 32 34 32 28 25 26 26 28 30 30 32 32 32 34 35 41 45 49 52 53 50 43 39 37 35 35 33 34 36 35 36 36 36 35 35
30 28 30 33 35 33 34 38 33 35 30 27 23 25 21 23 26 28 30 31 32 32 32 35 38 42 46 44 43 40 35 33 33 33 32 33 34 36 35 33 32 32 32 31
26 30 26 33 29 28 31 32 33 34 29 31 21 14 16 18 25 26 28 30 31 31 33 34 36 37 37 36 35 33 32 32 32 33 33 32 30 30 29 30 31 31 30 29
24 23 21 24 28 30 26 23 28 33 32 30 31 16 20 21 26 27 29 31 31 32 33 34 34 34 33 31 31 30 30 31 31 30 29 29 29 29 28 28 28 28 27 28
24 18 15 20 22 22 17 28 27 27 26 28 29 26 21 23 27 28 29 30 30 31 32 33 32 31 30 30 30 29 30 30 29 28 28 29 28 28 28 27 27 25 25 24
28 21 18 14 14 17 16 17 29 28 29 26 28 24 19 20 26 28 29 30 29 29 30 30 30 29 28 28 28 28 28 28 28 28 27 28 28 28 27 27 25 24 24 23
22 17 16 16 15 14 15 14 15 16 16 16 20 17 17 19 20 28 29 29 29 28 28 29 28 27 27 26 26 27 27 27 26 27 28 27 27 27 26 26 26 25 24 24
22 18 17 17 15 16 16 21 20 18 14 13 13 15 18 21 23 27 28 28 28 28 28 29 28 27 26 26 26 27 26 25 26 25 26 28 27 27 28 27 27 27 26 27
21 19 19 16 13 16 17 17 19 20 19 18 15 20 22 21 25 27 28 28 28 28 28 28 27 26 26 26 26 26 25 25 24 24 26 26 26 26 27 27 27 27 28 28
21 21 21 20 18 13 17 20 20 18 13 12 11 20 23 24 24 25 29 29 29 29 29 28 27 26 26 26 26 25 25 24 24 23 24 26 26 27 27 27 28 28 27 28
24 22 21 19 18 15 14 16 14 14 7 23 23 23 23 25 25 24 26 29 29 30 29 27 27 27 27 26 26 25 24 24 23 24 25 26 27 27 28 29 29 30 29 29
24 24 23 20 22 18 13 18 18 11 7 22 24 23 22 23 16 24 26 28 29 28 27 27 27 26 26 25 25 25 25 24 24 26 27 28 28 29 29 30 30 30 30 30
22 23 22 22 22 20 19 23 23 11 12 21 25 24 24 23 26 26 26 27 27 28 27 27 26 25 25 25 26 25 25 24 28 28 29 29 29 29 30 30 30 31 30 30
21 21 23 21 22 20 23 22 16 18 23 23 24 26 28 28 27 26 27 28 28 27 26 25 25 25 26 26 24 24 26 29 29 30 30 30 30 30 29 29 30 30 29 29
21 22 24 23 23 25 25 25 26 26 22 23 25 28 29 28 27 27 28 27 27 25 25 25 25 26 25 26 26 24 28 30 30 30 29 29 29 28 28 28 28 28 28 23
24 27 26 27 25 23 23 23 24 25 25 26 27 29 29 28 27 27 27 26 25 25 25 26 24 23 26 27 28 29 30 31 30 29 28 28 28 28 28 28 27 24 22 24
25 27 24 24 24 25 25 24 25 27 27 27 29 30 29 28 27 27 26 25 25 25 26 26 25 26 27 28 30 31 33 32 30 29 28 28 27 27 25 23 21 23 25 27
21 22 22 22 24 23 23 24 27 26 27 27 28 29 30 29 27 27 26 25 25 26 27 27 28 28 29 29 31 32 33 32 30 28 27 27 27 24 21 21 22 24 28 29

GFSCGP_sfc_30mbdewp_096.txt.gz
Dewpoint
32 28 28 29 31 29 28 24 23 20 19 17 14 14 20 25 32 34 37 42 44 49 53 59 59 61 60 57 58 65 65 62 58 54 52 51 45 44 39 39 35 34 35 35
30 29 32 31 30 31 30 27 23 20 18 16 14 12 15 29 35 35 43 44 46 45 51 57 57 54 54 61 62 65 63 60 58 55 56 54 42 40 39 39 36 35 35 35
30 32 33 32 31 28 28 25 24 20 18 19 17 14 15 22 31 40 43 44 45 45 45 52 55 55 58 60 59 65 63 61 59 58 54 48 41 41 40 38 37 35 35 36
32 33 32 32 30 30 30 29 24 26 24 17 18 14 17 25 27 36 42 44 47 46 46 51 55 57 61 60 57 65 64 63 61 58 51 46 42 39 39 38 38 36 36 36
29 32 32 33 32 33 31 34 31 30 23 19 18 20 25 31 27 38 40 43 45 46 48 51 55 56 59 57 60 65 64 62 61 59 51 46 41 40 40 39 38 37 36 36
29 34 34 34 34 34 33 33 32 33 29 23 20 27 33 30 29 37 41 42 43 45 47 48 50 54 53 59 62 64 63 62 60 58 49 44 44 39 36 36 36 37 37 37
26 31 34 34 34 34 34 33 26 25 25 21 34 32 30 36 39 34 40 44 44 45 47 46 47 53 57 60 62 62 62 60 59 53 48 46 40 35 36 36 37 36 38 39
22 27 30 33 32 34 34 33 28 22 27 30 37 32 37 43 41 36 40 43 47 46 43 44 49 51 54 56 58 59 58 55 54 47 45 43 39 36 36 36 37 38 39 41
24 28 31 32 33 34 31 33 37 32 33 31 33 36 40 42 32 36 36 38 37 37 38 43 46 49 52 54 56 57 52 50 45 41 39 38 37 37 38 37 38 38 38 37
25 25 29 30 34 34 35 39 34 34 28 24 24 15 17 25 28 31 32 33 33 34 36 41 45 49 52 54 53 46 43 39 36 35 35 36 38 39 37 36 34 34 32 32
23 23 22 25 27 27 31 28 35 37 36 30 17 17 20 26 27 30 31 32 32 33 36 39 42 41 42 40 37 35 34 34 34 37 36 35 35 33 32 33 32 32 31 31
23 21 21 20 26 28 28 25 29 31 31 34 34 19 22 27 29 30 31 35 34 35 36 36 36 36 36 35 33 33 33 34 35 34 31 30 30 30 30 29 30 30 30 29
26 19 18 17 22 21 17 17 28 29 35 32 32 30 25 28 29 30 30 31 33 35 34 34 34 32 32 31 31 31 32 31 30 30 30 30 29 29 28 28 27 26 25 25
29 24 20 17 16 17 14 16 16 28 31 27 26 20 19 22 29 30 30 30 32 33 33 33 32 30 30 29 30 30 29 30 29 29 29 29 29 29 28 27 26 25 24 23
23 20 20 19 19 15 15 16 16 13 13 12 14 17 19 21 24 29 30 30 30 30 31 30 29 28 28 28 28 28 28 28 28 29 29 28 28 27 26 26 26 26 25 25
22 20 21 19 20 15 15 18 20 19 17 14 17 19 21 24 28 28 29 29 29 29 30 29 28 27 27 27 27 27 27 26 27 27 29 28 27 28 28 28 28 28 28 28
22 22 21 20 22 19 18 18 19 19 13 12 18 22 24 24 28 29 28 29 29 29 29 28 27 27 27 27 27 26 25 25 25 26 27 26 26 27 28 28 28 28 29 29
22 22 22 21 22 17 18 20 19 17 16 22 17 24 25 25 25 26 29 29 29 30 29 28 28 27 27 27 26 25 25 24 24 24 25 26 27 28 28 28 29 29 30 30
23 24 22 22 20 19 16 17 16 16 15 25 24 23 25 25 26 25 28 31 31 30 29 28 28 28 27 26 26 25 24 24 23 24 25 27 28 28 29 30 31 31 31 31
25 25 23 23 22 22 18 18 18 13 12 24 25 23 22 24 25 25 28 29 29 28 28 28 28 27 26 25 25 26 25 24 25 28 28 29 29 29 30 31 31 32 32 31
24 24 23 23 24 24 22 22 23 14 18 24 25 25 26 28 29 27 28 28 29 29 28 27 27 26 25 26 26 25 25 29 29 29 29 29 30 30 30 30 31 31 31 31
21 22 24 24 23 23 23 23 20 22 24 24 25 28 30 28 27 28 28 29 28 27 27 27 26 26 26 25 24 25 29 29 29 30 30 30 30 29 29 29 30 30 29 29
22 25 25 24 26 25 26 26 27 27 25 26 27 29 30 29 28 29 29 29 28 26 26 27 27 26 26 27 27 28 30 31 30 30 29 29 29 29 29 29 29 28 27 24
22 28 26 25 27 27 23 25 26 27 26 27 27 29 31 29 29 29 29 27 26 26 26 26 25 26 27 28 29 31 31 32 31 30 29 28 28 29 27 26 25 23 23 25
23 26 26 26 26 26 26 25 26 27 28 28 29 30 30 30 29 28 28 26 26 26 26 26 26 27 28 29 31 33 33 32 31 29 28 27 28 28 25 23 22 24 26 30
22 21 20 21 24 24 26 28 27 27 27 28 29 30 31 30 29 28 27 27 27 27 28 28 28 29 30 30 32 33 33 31 29 28 28 28 28 25 23 24 24 27 29 29

GFSCGP_sfc_30mbdewp_102.txt.gz
Dewpoint
34 32 30 31 31 32 32 31 30 31 31 28 26 25 22 20 20 19 19 26 36 47 54 57 59 58 59 60 62 61 60 59 57 54 52 51 48 49 41 35 34 35 36 37
31 29 31 34 34 33 32 31 30 30 30 29 28 25 23 21 20 19 19 24 31 42 49 57 59 58 58 60 62 61 60 58 56 55 55 54 54 53 43 39 35 35 35 37
31 30 34 34 33 33 33 32 31 31 32 30 26 25 24 21 20 20 20 26 30 37 55 58 58 58 59 61 62 62 60 58 58 58 58 56 52 50 48 40 36 36 35 37
28 33 33 34 34 33 31 34 34 34 34 29 25 23 25 23 20 20 34 38 43 51 58 59 58 58 59 61 63 62 60 59 59 59 58 56 55 52 47 43 38 36 35 35
18 25 31 33 32 34 32 36 35 34 32 33 31 27 23 24 24 35 38 41 42 55 58 59 59 59 59 62 64 61 60 60 59 59 58 57 54 49 46 43 40 37 36 35
21 28 34 32 33 33 35 37 37 34 32 27 32 26 22 35 39 41 43 43 43 50 55 59 60 59 60 62 62 61 60 60 59 59 56 56 53 50 44 43 41 38 37 36
23 23 31 33 28 32 35 36 29 23 26 26 34 31 26 38 41 44 44 45 48 50 52 54 58 59 60 62 62 61 60 60 59 58 56 55 52 47 46 45 42 38 37 37
20 16 28 28 27 30 35 36 31 23 25 26 34 29 33 38 42 46 44 47 50 52 54 56 59 59 60 62 62 62 62 61 60 57 56 54 52 50 48 45 41 38 38 38
21 21 27 26 27 33 33 33 37 31 32 28 27 33 37 41 42 45 45 46 48 50 53 54 56 58 60 61 61 61 60 60 58 56 55 52 49 46 43 42 42 41 41 38
23 21 24 22 28 35 35 38 34 34 26 22 23 24 28 38 41 44 46 46 46 48 50 52 53 54 56 56 56 58 57 56 53 50 45 42 41 41 41 40 39 38 35 34
24 21 17 21 21 23 23 25 37 35 34 27 22 22 30 31 35 36 44 48 46 43 45 43 41 41 43 43 42 40 43 41 41 41 38 37 36 35 34 34 34 33 33 32
25 22 19 18 22 24 19 18 33 28 28 33 31 26 30 32 33 34 35 37 38 39 38 37 36 35 36 36 37 37 38 38 37 35 34 33 32 32 32 31 31 31 29 29
23 20 16 11 15 21 20 20 24 35 35 30 24 23 30 31 32 34 35 37 36 35 35 35 34 33 33 33 34 33 32 32 31 31 30 30 29 29 28 27 28 29 28 28
27 24 18 14 16 21 20 21 21 26 13 14 20 18 21 30 31 33 34 34 34 33 32 31 31 31 31 30 30 30 30 30 30 29 28 27 27 26 26 25 25 24 24 23
21 17 20 21 22 23 22 22 20 17 17 11 17 19 24 28 30 31 33 33 32 31 31 30 30 29 28 28 29 29 30 29 29 28 27 27 27 27 27 27 27 27 27 27
14 9 23 20 22 22 22 19 18 15 11 17 21 23 29 30 30 30 31 31 30 29 28 28 28 28 27 27 27 28 28 28 28 27 27 28 28 28 28 28 28 28 29 29
12 18 21 18 21 23 17 16 17 14 22 17 18 23 27 28 28 29 29 30 29 28 27 27 27 27 27 26 27 27 28 28 27 27 27 27 28 28 28 29 29 29 30 30
12 21 22 20 22 16 18 19 17 21 24 24 24 24 25 27 28 29 30 29 29 28 27 27 27 27 27 26 25 26 27 27 26 26 26 27 28 28 29 30 30 31 31 31
16 15 20 20 22 23 20 17 15 16 16 25 24 25 24 26 26 28 29 31 30 28 27 27 27 26 25 25 24 24 24 25 26 27 28 28 29 29 30 30 30 31 31 31
20 20 23 22 21 17 21 18 18 15 9 24 25 24 24 25 24 25 28 30 29 28 27 26 25 25 25 25 25 25 27 28 28 29 29 29 30 30 30 30 30 31 31 31
23 23 21 22 20 22 27 21 21 4 11 24 25 24 26 25 26 27 29 29 29 28 26 26 25 25 26 26 27 28 28 28 29 30 30 30 30 30 29 29 30 30 30 29
23 23 23 23 22 19 25 22 17 20 24 24 26 28 27 27 28 28 28 28 28 27 26 26 25 25 25 27 29 28 29 30 31 30 30 30 29 29 29 28 28 28 26 24
22 23 22 25 24 28 26 23 26 25 24 25 27 30 27 28 28 29 28 28 27 26 26 26 26 27 29 30 30 30 31 31 30 29 28 28 29 28 27 25 24 23 24 26
21 26 26 26 26 27 25 25 26 27 25 27 28 30 28 28 29 29 28 27 26 27 26 26 27 27 29 31 32 33 32 30 28 28 28 28 28 27 24 24 24 25 27 29
16 20 21 24 25 26 27 25 25 27 27 27 29 31 28 29 30 29 28 27 27 27 27 27 28 29 31 33 32 31 30 29 28 28 28 29 27 24 24 25 26 28 29 29
23 18 16 14 21 26 24 27 27 28 28 28 28 31 31 30 30 29 28 27 27 27 27 28 29 31 33 32 31 31 31 30 29 28 29 28 23 23 24 25 25 28 28 28

GFSCGP_sfc_30mbdewp_105.txt.gz
Dewpoint
33 32 29 31 32 32 33 32 31 32 32 31 29 29 28 27 24 22 21 20 24 43 56 58 58 60 59 59 59 60 63 64 62 57 54 50 45 44 41 36 35 35 36 36
31 29 31 34 35 34 33 32 31 32 32 32 31 30 28 25 24 24 21 20 21 27 41 55 58 59 59 59 60 62 63 62 60 57 54 51 50 52 47 38 35 36 36 37
30 28 33 34 34 33 33 32 32 32 34 34 31 29 28 25 23 22 21 28 37 34 32 56 58 58 59 59 60 61 62 61 58 56 56 55 54 51 48 41 36 36 36 38
24 30 28 33 32 33 31 32 33 35 35 33 35 28 30 28 25 29 40 41 42 43 46 57 58 58 59 60 61 61 61 58 57 57 54 52 51 50 53 51 46 43 36 37
17 21 26 31 29 33 30 34 36 36 35 35 32 31 27 30 35 41 43 44 45 44 54 56 58 58 59 61 62 61 60 59 59 57 57 55 56 54 52 51 43 40 36 36
21 26 32 32 31 31 34 36 36 33 31 26 33 32 25 36 39 41 44 46 47 47 58 58 58 58 59 62 62 61 60 60 60 59 59 58 55 53 51 50 50 46 42 37
21 20 26 33 27 30 35 34 26 21 24 24 34 32 29 35 40 44 44 47 50 52 56 58 58 58 59 60 62 61 60 59 59 59 58 57 55 54 54 51 49 46 46 39
18 11 22 28 24 24 35 34 31 23 24 27 33 30 34 39 44 47 47 49 51 52 55 57 58 59 59 61 60 60 60 60 59 57 57 57 57 54 52 51 47 46 44 39
18 17 25 26 25 33 30 32 37 30 31 27 27 30 37 38 42 46 47 46 48 51 53 55 57 58 60 62 60 61 61 59 58 58 58 57 55 54 53 50 45 44 41 39
22 19 22 22 28 32 34 37 32 33 24 22 25 24 27 31 37 40 47 45 46 47 49 51 51 54 55 57 59 59 58 57 56 56 56 54 53 51 47 44 43 40 37 37
24 21 15 19 20 19 21 19 35 34 33 28 24 22 29 31 33 36 43 44 44 42 41 42 43 45 44 47 52 54 53 52 47 43 40 39 38 38 37 37 36 34 33 32
24 22 19 15 20 23 22 18 28 29 27 32 31 26 30 32 34 36 40 43 43 42 39 36 36 37 40 40 42 41 39 37 35 35 34 33 33 33 33 32 32 31 31 31
22 19 12 8 14 20 20 21 22 33 31 27 19 19 29 31 33 35 36 36 38 38 34 33 33 33 33 33 33 32 32 32 32 32 31 30 30 29 29 29 29 28 28 27
27 23 16 5 10 19 20 22 22 24 14 12 18 19 22 28 31 33 34 34 33 32 31 31 31 30 30 30 30 30 30 30 29 29 28 27 26 26 25 25 24 24 24 24
18 15 19 20 20 22 22 22 21 15 17 12 16 20 26 28 30 32 33 32 31 30 30 30 29 29 29 29 29 29 29 28 28 27 27 26 27 27 27 27 27 27 27 27
12 -2 19 18 22 22 23 21 20 13 12 20 21 23 28 30 30 31 32 31 30 29 29 28 28 28 28 28 28 28 28 28 27 27 27 28 28 28 28 28 28 29 29 29
11 12 21 14 21 23 17 14 17 15 22 19 19 22 28 28 29 30 31 30 29 28 28 28 27 27 27 28 28 27 27 27 27 27 28 28 28 28 29 29 29 30 30 30
10 19 22 18 22 17 19 19 18 16 23 24 24 25 27 28 28 29 30 30 29 28 28 28 27 27 26 27 28 28 28 27 26 26 27 28 28 29 30 30 30 30 31 31
14 16 17 19 21 21 23 17 16 15 14 24 23 24 26 28 27 28 29 31 29 28 28 27 27 27 25 25 26 26 25 26 27 27 28 28 29 29 30 30 30 31 31 31
18 22 21 23 20 14 22 18 17 16 9 24 24 24 23 26 24 24 29 31 29 28 28 27 26 25 24 25 26 26 27 28 28 29 29 29 30 30 30 30 30 30 31 31
20 21 16 19 21 20 25 23 18 5 9 23 26 24 25 24 25 27 29 29 28 27 26 26 25 25 25 27 28 28 28 28 30 30 30 30 30 30 30 29 29 29 29 28
21 22 22 23 21 18 27 20 15 16 23 24 26 26 26 27 28 29 29 28 27 26 26 26 25 25 27 29 28 29 29 31 30 30 30 29 29 28 28 27 26 26 24 23
21 24 23 24 23 27 27 23 25 24 22 24 26 29 27 27 28 28 28 28 27 26 26 26 26 27 29 29 30 30 31 30 29 28 28 29 29 26 25 24 23 23 25 27
24 27 25 26 26 27 28 27 27 27 25 26 27 29 28 26 29 28 28 27 26 26 26 27 28 29 30 32 32 32 30 29 28 28 28 28 26 25 24 25 26 26 27 28
21 21 21 22 24 26 27 27 25 26 26 27 29 30 28 28 29 28 28 27 27 26 27 28 28 30 32 32 31 30 30 29 28 28 29 28 24 23 23 24 25 29 29 29
20 14 13 12 15 17 21 27 28 26 27 28 28 30 30 29 29 29 28 27 27 27 27 28 30 32 32 31 31 31 30 29 29 28 27 27 23 23 24 24 25 28 28 28

GFSCGP_sfc_30mbdewp_108.txt.gz
Dewpoint
33 31 28 30 32 32 32 33 31 32 33 32 32 31 31 32 30 28 25 23 22 22 49 59 60 60 60 59 59 59 61 63 64 61 59 56 54 48 44 44 46 45 39 36
29 23 29 33 35 34 33 32 31 32 33 33 33 33 34 33 31 28 26 24 21 22 26 49 59 60 59 59 59 60 61 64 64 63 61 55 53 51 48 44 38 37 38 37
28 23 32 30 32 32 31 31 31 32 36 36 35 32 30 30 27 25 35 39 41 41 42 40 56 59 59 58 59 60 61 63 63 62 57 56 54 51 45 42 37 39 38 38
24 25 23 29 30 32 27 31 34 36 33 30 36 26 30 33 30 38 41 44 45 45 45 46 52 58 59 59 60 61 61 61 61 58 57 54 54 48 51 48 49 49 47 39
12 19 21 28 26 32 27 32 36 34 33 30 33 29 26 34 35 38 41 44 46 48 47 48 55 58 59 59 60 61 62 61 58 58 57 54 53 54 54 51 50 51 50 47
23 25 28 32 29 32 34 36 32 31 30 24 33 30 27 35 38 40 43 45 47 50 52 55 58 58 59 60 61 61 61 60 59 58 57 55 55 54 53 52 51 50 49 46
20 16 24 32 22 26 35 33 26 20 23 22 34 32 33 38 42 45 45 47 50 53 56 57 57 58 59 60 61 60 60 59 58 59 58 57 56 56 56 53 52 49 48 43
17 5 19 26 23 23 35 34 30 23 23 26 30 25 33 38 39 45 47 48 50 52 54 56 58 58 59 61 60 60 60 59 59 59 57 57 57 57 56 55 53 51 49 47
18 14 23 25 25 32 28 30 37 29 30 27 24 29 38 38 37 40 46 46 46 47 50 52 55 58 60 60 60 60 60 59 58 58 58 57 57 55 55 54 53 52 49 45
22 18 20 21 29 31 33 36 31 31 22 23 25 24 26 32 35 40 44 44 43 42 44 47 48 51 56 58 59 59 58 57 58 59 58 56 55 55 54 53 48 45 42 40
23 21 12 18 17 17 21 19 31 33 32 25 24 24 30 32 36 40 43 44 42 40 39 41 44 46 52 52 54 54 53 53 52 51 51 50 49 45 42 41 39 37 36 36
24 21 17 13 19 22 22 19 27 27 25 31 30 26 30 33 36 39 39 40 40 37 36 37 37 37 40 39 39 38 37 36 36 35 35 35 35 35 34 33 33 32 32 32
22 18 9 -1 13 17 18 21 22 30 30 25 18 14 26 31 34 36 35 34 35 33 33 33 33 33 33 35 33 32 32 32 32 32 31 30 30 30 29 29 28 28 28 28
27 22 15 2 3 16 14 17 23 23 16 13 16 17 24 28 31 33 33 32 31 31 31 32 31 31 31 31 31 31 30 30 29 28 28 27 26 26 25 25 24 24 25 25
11 7 18 18 18 18 17 19 22 20 16 14 15 18 26 29 30 32 33 31 30 30 30 30 29 29 30 29 29 29 28 28 27 27 26 26 27 27 27 27 28 28 28 28
11 -5 14 11 21 22 22 23 24 20 12 16 21 20 28 30 31 32 32 30 29 29 29 28 28 28 28 28 28 27 27 27 27 27 28 28 28 28 28 29 29 29 29 30
11 9 20 10 19 22 17 19 16 12 20 17 16 21 28 29 29 31 31 30 29 29 28 28 28 28 28 28 28 27 27 28 28 28 28 28 29 29 29 30 30 30 30 30
12 16 21 16 21 12 19 22 19 15 19 24 23 24 27 29 29 29 30 30 29 29 29 28 27 27 27 28 28 28 27 27 27 27 28 28 29 29 30 30 30 30 31 30
15 16 16 17 20 20 22 20 15 14 10 23 23 24 26 28 27 28 29 31 30 28 29 28 27 27 27 28 27 26 26 27 27 28 28 29 29 30 30 30 30 30 30 30
19 23 20 23 20 11 19 19 17 16 10 21 24 24 25 27 21 22 29 31 30 28 28 28 26 25 25 26 27 27 28 28 28 29 29 30 30 30 30 30 30 30 30 30
17 17 15 16 20 21 23 23 15 9 13 21 25 24 25 25 25 26 30 30 29 28 27 26 25 24 25 27 28 28 29 29 30 31 31 30 30 29 29 29 29 28 28 25
20 20 20 20 19 17 26 21 10 13 22 24 26 25 25 26 27 28 29 29 27 27 27 26 25 25 28 28 28 29 30 30 30 30 29 28 28 27 26 25 24 24 24 24
21 22 23 22 21 25 27 22 22 25 21 24 25 27 27 28 28 29 29 28 27 26 26 26 26 28 29 29 30 30 31 29 28 28 28 29 27 24 24 23 24 25 26 27
25 27 25 25 24 26 28 29 29 28 25 25 27 28 28 26 28 29 29 27 26 26 26 27 28 28 30 31 31 30 29 29 28 28 28 26 26 24 23 24 25 27 28 27
24 25 24 24 24 26 26 28 28 26 28 26 28 29 28 28 28 29 28 27 27 26 27 28 29 30 31 31 30 30 29 29 28 28 28 24 23 23 23 24 25 28 29 29
20 19 19 17 18 17 18 20 27 27 26 26 28 30 30 29 28 29 29 28 27 26 28 28 30 31 31 30 30 30 29 29 28 28 26 27 23 23 23 24 25 28 28 28